GFSSGP_con_3kmhel_078.txt.gz
Helicity
95 108 122 178 282 432 392 359 164 153 193 133 249 258 234 268 219 227 71 57 49 85 100 65 54 67 59 46 52 43 28 9 -15 -16 -6 9 21 34 23 16 24 15 17 14 11 5 -7 -11 -6
116 141 139 211 440 416 426 156 209 192 80 124 238 332 233 194 167 136 60 62 52 83 85 61 51 63 63 47 43 33 15 -7 -28 -19 -5 15 32 27 18 24 8 3 4 5 -2 -9 -11 -4 2
105 132 196 268 388 408 315 100 101 93 191 99 168 283 362 237 127 135 77 29 74 73 65 87 55 59 54 44 42 34 21 8 -1 4 19 28 29 38 36 28 10 2 -2 0 -3 -4 -3 6 6
135 158 194 364 404 307 108 28 103 107 190 175 151 193 241 181 131 139 7 28 73 65 57 90 57 55 53 48 55 37 27 24 28 20 33 39 60 36 37 26 17 16 2 0 1 7 13 14 8
146 223 326 392 318 157 70 30 88 65 125 97 91 97 182 230 89 110 155 45 60 53 42 47 50 57 54 61 65 45 28 37 45 32 39 47 39 39 20 9 7 0 -2 2 8 9 8 10 11
234 245 449 386 251 115 87 77 81 100 132 79 81 96 95 144 65 92 134 82 41 38 38 46 44 62 55 74 67 48 37 48 59 58 36 59 44 25 7 2 -8 -8 1 2 1 4 14 19 15
215 241 321 222 170 92 92 72 75 78 71 81 76 42 24 36 226 52 88 184 43 47 42 51 53 70 72 78 61 41 35 43 69 79 70 58 21 2 6 -4 -5 0 -5 -4 1 11 21 30 28
185 222 218 174 141 93 75 75 74 64 84 97 49 54 7 -47 210 176 62 114 110 56 45 58 67 59 51 59 59 37 36 42 58 63 57 25 4 2 2 -1 -9 -7 -2 7 18 25 24 33 38
144 317 352 196 130 80 87 98 79 43 88 63 77 43 74 48 201 263 -54 17 205 231 50 62 76 59 60 45 52 44 39 43 41 36 38 8 -6 -11 -7 8 2 8 16 23 29 32 36 40 39
197 250 206 107 45 46 53 73 82 48 40 99 68 30 54 28 75 83 -7 -34 -60 139 60 78 75 74 69 66 44 37 36 26 17 5 0 0 -2 -8 -7 5 12 24 31 36 36 38 40 15 28
160 160 119 84 76 116 82 55 76 118 97 105 83 21 16 43 63 155 134 -38 -36 84 186 69 77 77 68 80 78 84 42 38 35 17 8 7 4 9 11 17 24 25 26 30 30 35 24 26 27
149 95 67 31 73 122 74 48 52 20 41 46 133 133 7 67 86 67 182 223 -63 5 170 150 72 76 68 81 84 77 64 43 37 28 17 18 23 23 29 35 40 40 40 43 39 37 35 29 26
87 52 60 46 61 112 127 56 23 45 10 36 84 88 23 58 56 143 9 -137 -118 -10 130 193 76 76 82 79 82 72 60 44 38 36 39 45 45 43 47 48 48 50 53 50 49 42 38 32 30
73 43 35 53 76 88 79 46 42 25 32 11 52 47 8 39 153 141 106 -7 -155 36 -43 112 133 90 79 80 70 72 60 59 53 73 64 63 65 57 52 50 50 50 54 57 53 47 44 38 33
53 26 48 44 57 63 87 72 17 34 100 15 13 29 1 36 147 115 125 62 -106 -19 149 -58 224 151 79 86 82 81 85 82 73 69 57 61 65 54 48 51 52 51 56 56 63 61 57 49 44
-35 54 55 63 53 81 131 42 12 33 67 53 47 34 19 27 100 116 68 27 -79 15 108 82 103 173 100 85 92 86 72 75 76 80 78 68 61 52 48 50 51 53 64 68 72 71 71 62 54
-2 75 68 86 38 100 92 35 51 30 3 40 29 24 -1 21 89 124 114 45 -14 79 135 222 182 172 119 63 76 64 73 82 80 77 64 50 49 52 54 59 56 57 66 72 80 86 82 85 80
24 53 35 53 67 68 65 72 81 35 27 12 23 13 -73 67 59 148 182 97 35 -12 14 106 91 109 109 46 35 52 65 59 81 63 56 41 58 54 64 55 60 69 79 80 87 87 91 95 95
-57 25 25 24 134 44 98 62 90 200 49 9 20 21 23 94 187 171 166 84 35 -27 -44 94 115 131 103 57 47 70 92 80 67 55 50 34 40 49 66 57 50 74 76 73 79 96 113 135 110
-6 35 74 59 86 49 -8 42 111 143 119 23 37 -20 104 99 56 144 84 93 9 24 -63 -59 -48 -17 61 73 183 111 111 99 33 83 43 20 51 47 65 52 66 56 83 70 98 124 148 125 118
56 47 30 50 92 83 -50 -69 7 85 43 85 104 108 181 126 4 82 53 30 37 46 74 33 12 10 -29 -24 19 164 130 135 36 83 74 58 83 34 50 21 52 47 76 88 87 110 96 129 144
43 33 102 72 163 78 93 -31 -20 125 49 59 143 192 177 134 83 10 -3 -13 2 28 2 32 -8 32 26 50 -5 27 63 104 121 141 58 70 129 107 55 7 -100 156 85 73 78 98 126 135 158
16 -17 -38 -10 246 114 149 23 117 133 97 141 230 277 239 225 116 145 86 99 83 71 43 27 76 19 21 19 14 46 13 20 97 79 49 16 45 175 153 52 110 81 120 113 216 148 222 243 222
88 -37 -59 -23 58 113 92 100 128 180 273 134 188 261 269 298 201 120 133 140 110 106 107 76 84 104 82 67 30 6 0 87 115 69 3 30 44 69 64 124 105 101 121 128 132 134 209 210 216
47 6 59 72 100 126 158 134 188 208 172 148 157 223 255 129 100 149 141 138 138 160 187 165 151 179 176 184 145 85 75 95 96 76 57 -21 -14 32 50 131 205 216 215 201 215 224 222 127 204
38 22 35 129 105 122 114 197 195 184 133 157 236 248 211 237 189 166 122 147 170 196 196 161 151 151 167 190 204 189 154 120 90 74 100 88 131 144 171 190 187 207 203 184 191 149 113 205 161
70 57 59 107 114 89 105 114 122 100 99 76 171 236 211 228 174 193 153 182 187 188 191 168 138 127 132 135 152 179 169 144 119 99 96 112 119 122 147 173 183 201 177 186 186 219 217 186 178
72 82 105 135 132 117 106 111 49 33 27 23 103 141 126 206 331 168 180 196 185 176 159 152 143 134 123 113 106 101 123 134 115 105 116 113 107 115 131 195 233 223 193 174 174 134 119 123 91
54 79 67 56 73 50 57 31 -3 -7 -27 -20 -8 9 42 55 73 95 129 140 143 142 150 152 152 144 135 118 105 98 99 99 101 101 105 104 110 114 141 207 227 198 164 135 104 98 104 101 110
80 79 62 -13 27 51 25 -16 -49 -85 -22 -2 28 50 67 75 95 129 148 142 136 125 111 99 93 97 99 90 83 76 65 64 70 75 78 80 85 99 133 190 212 180 148 120 118 125 123 112 115

GFSSGP_con_3kmhel_081.txt.gz
Helicity
102 115 94 117 194 303 149 162 43 62 7 47 72 144 116 65 134 201 120 111 96 71 99 97 83 91 60 38 41 40 27 21 28 44 43 23 26 39 34 28 28 19 23 25 24 15 10 14 26
86 90 79 128 225 176 156 74 91 37 52 34 181 209 123 163 182 129 91 50 144 56 137 73 85 91 64 49 41 33 29 9 -7 11 9 24 32 39 29 24 24 15 28 30 19 13 6 7 22
71 74 106 234 198 122 126 91 48 17 44 73 119 141 165 200 181 183 129 13 110 120 75 119 87 90 65 53 42 28 19 -1 -30 -16 5 26 46 39 33 31 23 18 30 24 8 7 8 10 15
82 111 149 205 162 96 42 51 35 10 58 98 60 71 131 221 105 148 162 40 93 134 83 115 87 91 61 64 52 34 23 22 -18 -7 15 26 48 35 39 37 31 37 22 19 13 13 15 12 12
91 154 212 189 116 98 63 19 0 37 59 129 100 -10 142 117 127 158 195 180 55 85 85 56 77 78 58 69 65 50 40 45 25 17 30 45 50 51 60 64 58 41 25 21 23 25 19 13 13
192 194 228 145 121 77 63 22 27 -18 47 49 24 66 47 76 53 114 195 364 109 53 57 44 65 58 61 73 83 63 56 61 61 42 46 75 75 50 46 56 50 26 24 23 23 20 17 12 13
159 182 178 128 121 94 66 27 23 51 24 67 23 9 77 43 53 75 184 153 75 237 88 65 61 62 74 83 92 66 65 78 96 79 71 97 81 55 40 30 20 16 21 20 14 18 24 19 23
133 161 144 130 146 121 28 17 15 38 35 16 15 41 56 79 53 87 178 332 122 364 261 86 65 55 48 63 95 80 67 105 121 118 106 90 82 44 38 26 20 21 16 11 15 25 27 32 27
113 242 201 129 120 115 21 25 18 40 55 30 3 20 52 33 123 30 126 148 24 392 239 185 64 56 45 59 85 90 83 117 135 120 102 75 58 38 30 29 26 28 19 19 23 32 33 40 31
164 182 131 115 79 66 29 31 22 56 49 46 5 38 46 15 6 -4 69 203 -122 -289 167 46 190 70 48 78 81 69 70 78 89 80 71 44 14 27 17 40 29 33 29 31 32 34 33 14 24
141 140 144 131 77 95 86 53 27 72 42 37 37 66 84 34 -65 -56 24 82 -49 -309 -61 -56 72 153 60 114 82 89 95 86 92 46 25 19 38 54 33 22 29 21 22 24 28 32 24 18 23
96 122 128 109 145 126 107 157 68 43 35 24 41 41 104 56 1 3 18 57 -25 -255 -229 -56 62 138 71 146 118 109 87 94 97 73 57 74 78 46 32 24 25 28 35 24 29 30 21 28 23
79 94 98 101 90 105 126 114 94 49 10 43 84 45 63 1 41 -7 10 45 -14 -143 -282 -83 51 -8 154 148 141 123 124 104 107 96 89 74 70 62 48 42 47 45 44 43 39 39 40 32 28
83 111 138 111 119 135 75 68 95 70 34 59 49 98 38 156 -2 8 20 5 25 -86 -193 -210 14 47 138 156 112 122 125 118 74 92 81 60 59 66 66 64 61 57 56 55 47 42 45 37 38
54 84 91 89 118 80 94 58 35 22 43 36 52 47 83 92 26 20 45 50 25 -31 -60 -35 -20 -89 148 148 169 97 115 114 121 80 80 82 80 73 67 61 60 53 58 45 55 52 55 53 48
27 31 43 66 46 26 80 36 2 50 58 30 71 30 40 27 39 23 36 33 63 33 11 56 84 9 201 148 163 159 121 96 99 104 96 82 75 69 69 77 63 62 55 55 64 65 67 65 58
-5 -29 -31 -12 25 57 77 4 101 39 -5 14 28 49 15 52 19 34 58 44 37 16 16 74 22 83 138 86 95 112 102 105 93 92 81 69 66 59 73 70 69 62 74 62 63 77 79 83 80
-20 3 46 7 38 65 30 42 92 166 178 42 28 34 21 1 11 76 64 111 83 44 49 86 159 152 103 149 107 82 111 118 99 104 99 70 66 56 60 75 83 81 79 67 68 72 86 93 90
-18 8 5 14 1 20 13 30 70 105 116 74 42 61 38 -12 40 24 78 146 142 88 -8 153 151 247 315 124 95 106 94 89 103 103 92 94 87 89 82 95 114 129 92 52 57 73 81 104 133
21 21 -27 14 3 59 24 49 43 20 88 117 121 45 26 31 65 65 213 214 172 94 22 67 75 192 102 141 103 118 96 107 102 112 112 88 74 75 78 59 55 85 114 88 100 76 101 130 139
50 114 59 1 -33 41 53 60 30 36 23 46 89 56 56 7 48 -27 65 173 113 80 29 23 64 90 129 103 134 145 121 100 84 101 120 115 98 75 59 56 80 68 88 83 83 65 80 141 153
55 65 44 99 3 54 43 32 10 33 57 -19 23 21 41 172 142 60 85 115 88 28 151 61 54 74 99 83 58 56 134 107 111 105 97 67 91 100 81 13 61 99 73 40 91 75 36 93 149
7 11 -23 25 52 -11 5 22 4 -27 27 43 35 54 105 150 118 195 9 -20 -57 -27 -32 -57 -19 -69 -86 -97 -16 64 59 76 168 -2 141 25 40 32 37 21 47 131 114 76 42 137 143 187 191
-49 -31 7 149 84 25 67 57 14 58 169 253 91 178 129 133 100 134 41 8 -8 18 13 24 -14 -5 -2 7 33 -2 48 21 50 -29 36 10 80 5 25 -91 -29 145 194 152 14 174 115 134 192
16 30 74 177 98 79 91 74 5 59 139 178 108 143 203 210 199 143 55 77 76 90 93 79 89 75 58 84 89 35 -12 48 62 -11 -6 -18 -26 -7 -15 1 -21 -9 105 38 155 159 172 167 187
26 24 92 92 50 52 47 89 83 111 113 139 189 157 264 264 285 312 87 57 53 101 113 91 98 109 111 123 125 137 160 152 108 55 38 26 35 22 59 30 48 75 38 146 184 196 199 174 164
29 43 77 93 61 123 182 176 82 59 65 136 196 197 234 289 174 152 86 70 105 111 128 133 121 120 121 126 131 139 144 138 137 121 121 84 69 90 121 145 134 146 187 208 232 239 223 204 179
125 123 146 88 85 72 96 114 98 96 79 107 177 194 204 208 215 149 84 94 121 143 139 130 123 123 126 113 105 93 97 112 121 117 106 92 99 105 101 113 154 208 215 231 233 198 160 201 157
111 121 102 65 59 56 39 55 57 35 14 20 35 77 102 119 86 82 80 112 120 142 138 140 148 143 129 118 105 96 96 91 92 91 96 96 104 105 115 133 177 207 253 229 194 174 172 153 133
136 87 67 66 34 48 13 -9 -32 -33 -25 -20 -26 -16 -1 10 24 44 77 91 106 116 117 117 98 96 102 92 81 79 76 75 70 67 71 79 74 80 89 123 161 179 193 212 176 160 141 126 112

GFSSGP_con_3kmhel_084.txt.gz
Helicity
109 120 127 165 237 278 257 183 87 24 65 -12 -13 78 115 121 161 172 119 195 167 116 91 142 77 76 69 66 66 64 59 57 55 58 57 39 34 49 41 35 31 21 37 45 45 27 32 24 23
150 132 148 182 321 268 221 85 56 33 36 11 47 175 184 198 159 100 163 104 180 156 86 145 66 78 72 58 65 57 49 44 40 43 45 35 37 42 40 35 34 40 54 48 36 24 22 26 28
81 124 199 268 300 230 223 66 48 -32 -5 21 99 184 221 261 215 115 112 79 181 185 70 119 74 77 68 61 60 55 49 33 35 31 29 23 41 43 38 36 39 64 61 45 32 18 14 23 26
108 149 229 310 239 126 46 7 -17 30 18 49 98 184 169 136 153 139 77 149 123 159 120 107 78 61 67 74 61 47 51 16 12 17 10 28 48 48 45 54 52 68 50 34 24 18 11 21 15
126 217 234 240 188 106 100 79 80 85 16 84 141 187 216 119 76 111 116 280 185 168 153 102 73 71 64 69 63 56 54 16 8 3 15 39 56 54 48 59 60 54 39 32 24 28 14 10 11
204 240 271 201 151 131 79 45 74 82 40 28 167 187 112 115 178 113 144 231 292 266 223 91 70 79 67 71 68 66 66 38 29 25 33 52 70 64 57 65 66 52 47 35 37 35 25 17 14
166 183 185 165 184 131 57 18 67 90 95 31 81 160 170 173 106 193 100 228 316 360 449 143 97 88 72 72 76 71 72 63 62 66 78 90 92 77 64 70 65 52 47 39 35 24 20 19 18
153 173 165 171 186 138 94 43 46 51 62 38 55 127 113 159 204 194 193 201 229 310 502 550 219 82 73 83 74 73 79 79 83 123 141 120 119 74 72 54 67 52 50 43 33 26 24 26 23
143 239 201 150 130 112 106 133 29 28 51 39 52 80 35 41 241 180 96 223 195 156 116 -20 302 291 253 53 80 91 88 106 144 173 152 143 120 71 83 61 71 65 55 38 28 29 32 28 27
188 188 150 98 116 121 105 94 94 71 54 66 110 85 78 47 153 157 95 99 100 56 56 -101 -102 24 201 283 93 111 115 141 151 169 135 119 121 84 70 68 65 78 52 35 27 31 27 21 20
157 134 128 138 152 162 152 160 78 72 89 46 99 80 85 105 115 135 129 110 84 45 101 -203 -126 -174 42 125 85 146 145 138 164 126 101 77 62 96 141 95 89 83 46 39 38 34 20 5 7
105 81 105 134 185 190 202 212 246 96 131 76 59 91 83 138 62 58 95 123 56 -10 -59 -230 -275 -193 -109 -65 268 124 168 134 155 143 111 75 119 123 83 87 67 52 34 21 32 35 18 5 25
100 63 74 98 115 139 179 184 254 183 70 75 98 68 51 66 119 59 95 33 82 32 -42 -327 -440 -274 -48 64 -34 130 133 134 173 154 95 182 160 116 77 74 62 49 44 16 34 37 36 28 30
92 111 120 140 168 185 162 190 200 144 108 147 67 89 62 41 34 112 63 69 39 50 -32 -70 -85 -51 -5 19 -39 94 143 163 168 173 198 262 179 151 132 88 68 50 61 52 58 42 41 50 40
109 82 64 67 62 85 136 116 159 137 57 153 144 50 62 59 0 57 32 70 58 32 18 -34 -26 -2 -23 2 103 25 134 190 204 209 226 170 131 111 101 93 88 82 73 56 49 45 49 58 56
63 61 72 43 31 38 84 98 77 31 66 63 112 56 71 74 80 51 33 51 132 103 50 15 24 6 125 45 203 71 108 131 163 146 131 144 133 112 107 98 86 61 61 63 70 65 70 77 73
51 72 44 6 -34 -23 49 48 -20 -12 25 28 75 72 49 80 38 61 43 61 101 108 70 33 40 27 105 72 224 94 106 114 118 127 153 135 119 105 103 100 86 72 77 87 79 73 75 85 65
33 -7 -9 -11 0 -19 70 19 -19 44 65 62 37 19 48 60 102 136 115 119 109 81 73 46 47 59 110 103 131 128 114 123 120 112 111 106 106 95 109 116 103 100 98 96 86 68 65 73 69
-16 -39 -7 3 -5 21 25 16 -28 4 51 100 161 103 34 66 133 71 53 60 89 80 115 90 46 75 73 118 84 77 102 124 161 145 109 101 105 95 100 112 126 143 154 104 73 83 67 74 72
12 11 3 28 12 13 46 -18 24 68 45 69 94 80 65 87 97 26 -9 48 186 138 95 93 87 152 100 132 183 115 129 148 143 145 179 148 144 142 137 124 115 103 126 129 101 104 115 95 109
68 93 97 39 15 -10 25 -2 41 28 -2 37 68 38 66 20 31 17 25 60 97 75 94 37 67 140 181 144 200 146 191 198 191 158 134 189 180 135 105 84 85 78 83 88 124 101 112 103 114
87 97 102 75 9 -76 -29 -3 6 37 54 27 26 33 -2 44 71 59 79 60 21 203 173 32 76 107 188 125 119 121 182 195 112 125 102 86 187 75 67 62 64 66 85 82 71 87 128 109 101
40 -13 15 40 -5 3 -10 32 20 47 67 93 25 -9 40 92 122 91 73 125 134 79 118 83 62 58 79 62 18 94 61 45 156 94 91 122 48 90 103 84 64 61 74 35 -43 42 139 188 121
1 -8 19 -5 0 4 -14 5 -2 45 28 118 69 141 99 126 154 96 98 128 -25 -73 -42 -47 10 30 5 43 -61 -16 118 39 123 56 97 68 32 120 125 91 41 37 177 215 84 17 179 241 179
3 41 66 21 9 7 14 9 -23 19 13 112 46 116 128 146 138 141 121 40 42 90 47 7 14 5 8 40 26 40 -47 -15 -59 -31 -40 6 -100 -66 -95 47 46 64 92 94 109 212 207 178 116
2 65 140 41 33 53 73 45 32 49 64 77 117 156 146 152 121 145 105 106 113 118 35 1 26 39 33 47 76 68 71 49 -17 56 23 6 13 50 33 27 16 77 102 65 141 111 140 122 143
45 76 171 91 79 134 105 132 104 50 71 109 115 118 123 160 231 240 220 104 67 50 33 58 72 91 86 87 84 88 109 125 100 111 83 66 65 24 9 18 34 72 54 83 144 168 167 139 163
129 183 102 97 71 87 128 119 84 35 23 32 84 100 118 152 133 105 80 56 44 50 67 84 89 93 96 96 90 75 71 80 99 94 100 93 76 57 50 51 57 70 100 155 165 179 180 189 183
116 116 112 136 83 81 65 70 58 24 14 33 79 151 148 134 140 143 85 46 46 53 69 94 98 107 111 104 90 87 84 81 79 76 75 70 70 73 67 61 58 84 111 160 171 168 171 168 143
149 133 83 38 73 59 8 9 -33 -17 -23 -33 -12 58 84 81 63 36 30 36 53 67 73 74 73 65 63 67 73 62 60 67 65 65 63 66 67 60 50 54 57 78 116 148 173 189 166 157 152

GFSSGP_con_3kmhel_087.txt.gz
Helicity
95 118 181 234 238 279 291 215 134 91 112 48 7 5 -7 49 52 47 165 173 150 89 79 105 112 133 100 86 79 85 89 83 77 75 60 47 35 50 60 46 42 62 68 59 73 51 41 34 30
95 162 198 230 293 335 244 122 94 25 7 25 54 47 56 85 145 133 128 198 106 109 76 112 130 129 124 97 76 73 73 78 65 71 58 51 51 51 53 38 34 60 72 58 54 63 41 33 26
121 181 236 233 275 337 220 126 74 134 101 -5 52 38 88 141 186 148 140 201 62 122 68 87 154 127 109 88 72 58 58 60 66 66 50 46 60 55 50 27 19 68 66 61 48 52 37 36 22
149 220 221 257 245 195 123 88 10 99 85 60 41 131 114 87 118 105 115 98 140 111 90 95 168 97 97 67 68 51 52 46 64 55 46 37 49 61 52 41 59 66 64 51 39 42 36 31 27
166 248 242 232 191 156 108 141 201 172 107 86 107 100 50 86 80 87 111 202 226 145 84 92 135 98 82 58 64 51 49 22 44 42 38 28 50 72 61 56 72 63 57 47 30 33 35 26 20
251 237 244 212 164 156 117 82 96 178 98 41 104 116 89 100 82 78 133 197 232 262 228 143 84 87 99 62 74 63 54 20 24 18 18 34 58 92 84 58 56 64 57 44 36 26 20 22 13
195 232 194 190 188 162 149 117 144 144 127 79 50 146 84 101 136 147 189 278 240 322 344 376 391 279 154 76 60 59 70 34 34 12 35 51 87 93 72 59 60 63 63 73 57 34 32 19 13
173 201 188 189 170 119 100 106 110 128 115 2 -9 89 96 64 189 206 236 310 330 298 333 364 380 464 380 288 248 61 60 76 31 51 75 106 129 98 75 104 73 68 61 65 60 39 24 18 15
196 247 202 157 122 112 64 91 39 20 48 58 -61 15 26 122 208 204 171 189 213 197 243 263 291 394 373 319 275 172 44 86 66 141 169 170 184 148 116 125 84 71 62 64 52 33 27 23 20
272 227 195 137 116 125 105 102 47 64 129 60 56 48 28 36 113 105 107 99 136 112 95 133 182 130 186 253 169 135 102 68 119 185 208 204 168 151 136 128 92 77 58 58 44 35 29 26 19
232 203 144 117 112 118 131 101 60 84 95 154 113 176 101 83 78 82 101 109 116 129 107 132 162 190 17 -292 -121 132 104 53 115 139 222 178 176 154 145 147 118 107 59 60 51 41 30 18 20
179 175 149 123 116 128 131 122 80 102 111 87 84 122 109 67 108 130 108 101 87 132 88 67 54 6 -151 -268 -254 -19 139 36 127 154 143 200 182 162 146 157 124 101 65 54 50 38 23 13 15
200 139 149 166 188 194 177 139 121 59 94 104 86 138 111 104 15 92 83 116 154 116 106 121 123 -62 -232 -121 -57 -77 74 103 110 175 145 184 164 155 157 145 117 91 64 51 41 37 27 14 20
196 180 136 132 86 60 98 99 103 94 44 97 115 153 85 125 44 63 44 35 47 135 140 149 110 -35 -165 -198 -116 -75 37 122 145 171 169 162 147 149 133 134 119 90 60 51 49 41 39 24 28
199 201 163 74 43 74 44 57 106 85 63 48 38 164 148 191 93 103 49 20 93 155 148 130 94 23 -49 -65 -105 -41 -60 154 190 162 162 168 182 147 134 138 117 85 59 62 63 48 57 49 36
214 199 120 68 59 40 73 69 83 65 70 54 7 97 124 172 148 70 47 10 109 151 149 142 109 24 -18 -4 -23 -29 182 161 160 163 207 212 218 184 153 141 115 100 103 84 85 74 62 48 55
138 179 161 64 7 21 29 192 55 106 32 30 56 33 108 185 172 104 62 99 61 167 146 132 131 47 18 62 66 113 69 113 108 211 225 215 179 176 174 150 130 120 113 100 95 87 85 77 74
122 27 -1 4 43 29 -19 -2 50 12 33 23 12 80 104 157 135 123 159 140 94 114 73 94 103 77 51 47 84 195 190 51 70 161 188 161 150 150 160 158 131 119 107 102 107 103 90 86 68
7 4 3 24 35 13 49 0 10 118 9 9 9 39 37 39 92 132 146 117 70 63 37 42 53 51 56 41 49 102 198 121 71 21 93 146 128 132 146 151 154 142 120 118 106 109 87 80 84
19 19 59 45 31 29 11 26 6 49 24 53 -11 26 80 22 102 91 121 138 120 134 59 81 51 74 48 105 116 137 163 98 78 88 69 82 109 116 123 139 155 158 180 171 156 145 138 101 82
149 96 68 61 14 75 20 -10 16 32 15 27 21 44 38 16 51 82 111 112 94 121 131 106 76 68 143 110 174 159 254 288 233 130 141 145 165 154 141 131 133 126 136 142 146 142 114 110 113
181 154 157 108 34 -56 35 -36 1 19 17 34 57 39 53 40 35 64 112 82 64 91 194 138 38 103 184 152 164 168 239 295 282 147 210 94 143 227 260 134 112 120 115 99 99 96 125 128 105
121 36 31 42 37 36 -6 -42 7 -7 10 23 29 18 25 94 110 102 95 117 125 165 198 203 145 63 244 195 197 156 220 217 215 191 149 197 114 55 122 138 67 102 94 94 53 48 70 187 237
78 28 54 3 -2 31 31 89 2 19 4 24 28 62 55 64 119 182 127 114 204 164 122 169 126 104 192 246 130 90 47 97 129 70 94 99 32 72 35 92 97 138 130 130 127 103 155 182 164
6 10 54 27 30 31 6 3 -17 10 -15 27 -15 41 74 176 175 149 86 116 91 72 90 53 66 77 147 102 64 -10 88 84 56 121 121 91 81 42 148 175 156 129 125 130 56 119 141 217 242
35 56 87 31 27 56 61 39 1 -14 -39 -38 20 50 93 114 175 194 157 146 137 52 47 49 59 31 -20 -23 -9 25 25 29 78 -10 -26 8 -34 -21 7 33 27 27 61 39 68 55 114 128 132
69 165 78 67 48 66 84 59 30 29 14 28 66 114 116 90 106 137 107 157 100 37 25 20 26 44 65 61 43 40 52 65 45 51 39 2 13 21 23 22 18 60 83 91 126 117 107 109 122
167 148 99 70 66 66 93 133 59 37 28 49 81 96 115 94 147 115 124 71 69 39 48 56 63 64 68 66 57 49 57 54 63 73 81 52 46 53 45 64 49 56 62 88 98 98 110 132 128
128 142 124 135 92 81 78 121 76 19 -3 -7 25 42 61 68 74 88 67 57 53 60 50 45 48 62 78 75 63 63 74 80 84 81 70 57 53 55 56 51 59 61 51 50 71 91 145 134 143
173 184 84 47 70 33 36 75 115 8 -13 -5 -26 26 32 26 84 110 93 64 40 33 29 24 31 41 49 44 42 44 50 59 69 75 80 77 76 71 66 63 47 42 43 57 87 107 125 138 142

GFSSGP_con_3kmhel_090.txt.gz
Helicity
85 121 109 212 176 226 209 137 149 110 98 104 123 112 112 22 33 76 97 3 132 90 89 75 82 94 113 127 126 113 66 56 78 79 72 68 67 71 70 53 57 65 82 79 83 71 67 58 52
109 164 190 224 250 268 204 117 106 74 72 96 70 95 127 78 23 60 81 85 85 106 97 99 104 116 127 122 118 103 90 53 65 67 65 56 65 72 71 59 56 74 77 81 74 68 70 62 55
169 169 212 196 208 272 176 88 45 119 126 106 124 44 81 68 55 92 70 55 86 81 78 83 121 126 125 117 113 92 74 72 55 53 47 56 70 73 67 58 51 74 68 84 70 66 68 60 59
210 223 220 215 184 145 126 120 129 148 143 134 134 217 67 79 51 61 41 86 72 87 70 71 97 137 122 96 97 74 60 47 56 47 52 52 52 79 61 46 62 77 73 69 69 65 60 54 47
226 227 204 195 166 171 133 102 120 185 184 177 170 206 183 104 140 139 108 86 127 119 80 43 68 106 118 95 90 73 60 35 43 43 39 47 40 77 67 56 67 87 62 55 64 57 54 48 42
202 206 183 184 150 131 114 73 95 159 188 99 198 184 113 65 104 140 174 184 168 193 179 136 120 85 95 81 61 79 68 55 17 39 32 40 44 60 78 65 67 76 63 43 50 54 48 39 30
155 182 162 156 131 106 98 118 126 132 144 101 80 195 100 132 99 133 224 222 255 279 337 335 315 329 378 321 270 230 136 77 21 23 20 38 49 75 92 84 88 65 61 48 38 42 40 30 20
147 164 148 154 113 96 71 109 98 119 108 18 72 234 282 67 130 117 208 218 252 270 309 348 355 348 348 359 328 273 217 218 84 23 27 47 62 96 112 106 91 62 78 73 38 30 43 23 17
186 169 146 167 122 93 104 119 5 10 19 43 36 102 130 117 175 144 138 156 182 243 270 276 300 302 308 296 316 316 305 214 192 46 58 94 131 126 149 103 74 93 88 88 65 54 39 27 17
194 174 124 142 151 102 90 103 85 -8 32 -18 37 136 169 173 125 106 89 77 123 170 190 231 252 247 240 219 220 257 264 238 183 105 114 173 191 182 171 129 103 114 101 79 50 45 41 37 26
194 183 147 162 125 113 85 91 92 74 0 0 84 156 184 255 153 98 133 129 88 114 115 110 133 151 156 98 69 175 157 193 201 110 111 190 266 252 228 167 145 148 120 109 76 54 49 36 30
175 140 145 144 171 168 140 111 84 123 50 -30 -6 78 109 225 223 126 105 89 90 83 85 107 120 124 115 144 149 164 141 115 139 38 91 183 259 317 236 197 164 148 134 108 89 55 40 31 24
124 133 168 181 182 130 106 93 99 52 40 -23 -20 61 111 135 168 153 70 76 94 83 101 102 89 99 138 122 116 111 179 134 52 68 77 137 219 309 234 178 173 144 134 111 91 58 43 34 23
161 138 119 140 87 100 110 75 141 117 89 39 -14 46 40 81 121 159 128 84 87 86 103 94 109 124 172 149 104 36 15 142 77 83 91 126 162 189 164 156 148 160 117 104 93 65 48 39 43
121 106 122 74 103 177 170 100 115 52 56 55 43 -32 -4 80 83 129 163 180 89 69 74 63 119 96 153 93 84 54 -44 96 134 38 142 192 184 121 172 158 149 152 118 112 99 80 68 58 49
140 164 135 109 173 155 219 100 122 120 151 159 112 11 -64 83 83 118 156 126 77 94 74 68 172 149 119 83 88 95 53 -7 107 70 216 231 169 137 123 146 125 150 136 126 108 99 75 60 62
162 152 118 197 72 113 131 96 44 76 113 163 141 107 -6 28 108 117 169 114 84 108 107 101 142 123 107 84 90 100 72 173 104 192 184 208 175 167 198 125 119 151 147 134 123 112 109 95 80
43 124 95 122 54 59 15 47 56 99 91 68 201 175 73 80 132 107 157 148 115 110 141 111 139 148 129 110 84 55 78 116 83 160 247 144 175 169 188 161 138 160 161 143 137 142 111 108 102
41 23 9 79 115 -19 27 27 118 162 50 41 118 174 168 150 162 125 95 105 113 123 95 63 92 91 126 131 102 42 63 46 86 211 117 176 148 167 181 178 164 178 168 149 137 137 131 121 134
35 19 83 116 56 19 8 54 144 107 24 52 67 90 86 141 151 166 146 133 132 108 73 72 67 87 79 89 86 38 67 57 93 187 182 110 126 146 180 175 168 166 182 149 131 157 177 151 151
89 106 139 129 42 30 5 10 53 41 43 43 52 40 64 39 62 116 142 158 149 128 127 90 58 86 98 118 52 94 93 67 144 183 103 101 92 124 147 148 167 171 170 160 167 182 181 188 158
81 29 84 79 26 -15 13 -41 11 44 7 62 45 65 91 60 92 119 137 162 125 115 105 127 115 83 48 116 127 119 93 74 118 190 224 190 118 117 133 161 161 178 194 207 195 207 205 223 173
59 23 38 10 38 26 52 -57 -33 10 -29 -8 25 16 11 27 18 35 86 99 65 92 88 90 147 157 74 269 140 115 256 226 218 243 189 132 132 186 122 164 181 159 134 102 110 126 143 139 184
69 21 -4 19 12 28 59 63 27 10 -35 -13 -28 -8 23 6 11 57 120 146 155 153 134 145 147 171 224 361 155 167 166 191 177 179 228 206 166 154 121 174 176 125 131 86 109 81 99 130 127
5 22 45 55 88 56 10 23 2 21 3 -19 -52 -36 -2 56 100 121 187 174 213 210 183 170 246 286 205 156 147 56 171 107 108 159 120 87 82 107 66 47 34 120 65 75 117 109 121 149 154
28 60 30 25 62 47 20 44 -8 -32 -12 -20 -24 -23 45 94 181 196 179 191 113 202 168 122 100 148 46 112 151 154 74 137 85 65 69 9 92 83 64 54 74 117 112 156 124 147 140 209 166
53 99 62 38 19 42 70 69 37 -9 -28 -17 -15 23 59 77 124 198 192 225 81 79 56 33 27 40 51 37 28 49 60 38 2 145 87 36 90 156 25 -33 14 40 58 64 78 73 78 99 113
128 67 49 40 61 53 56 90 67 29 15 18 33 20 34 53 107 149 164 83 95 61 46 42 40 43 45 44 43 41 52 58 55 53 27 11 -1 24 53 60 48 58 55 69 63 68 78 89 98
113 122 131 89 84 74 82 95 105 70 47 56 47 32 19 28 78 82 95 73 116 45 46 38 38 39 39 25 26 44 54 61 69 71 75 72 61 62 58 49 53 57 65 75 73 87 94 92 95
134 147 98 90 76 49 44 87 83 52 43 21 8 -1 8 7 30 68 69 35 24 24 22 38 34 29 28 22 18 20 25 36 56 64 61 59 64 76 82 83 76 81 85 90 85 81 91 91 88

GFSSGP_con_3kmhel_093.txt.gz
Helicity
121 122 106 199 190 240 196 132 148 70 80 172 187 210 192 96 102 170 17 -31 44 83 83 103 77 57 53 67 75 94 100 103 98 93 80 88 74 64 60 57 59 50 77 107 92 72 68 66 68
142 148 201 209 208 241 152 100 89 43 131 135 164 194 170 111 66 38 49 38 82 88 82 114 113 106 100 98 107 76 68 71 76 78 79 74 75 66 57 56 62 79 88 111 85 72 70 74 71
152 157 184 139 168 178 120 78 85 158 154 137 185 126 142 146 83 75 37 71 93 82 87 87 119 120 109 106 93 84 69 64 59 63 68 64 66 68 65 58 63 80 112 117 90 79 74 72 66
154 189 188 169 116 70 80 70 130 163 213 218 207 258 149 105 87 88 69 42 94 79 82 68 93 114 116 111 104 84 68 59 49 52 57 65 49 75 67 70 81 108 119 98 97 88 77 70 58
180 155 175 159 124 132 88 95 102 103 194 235 235 257 223 118 39 66 92 44 64 75 90 72 79 101 112 108 105 99 76 59 49 51 53 46 52 57 73 71 81 86 108 102 92 87 77 68 54
146 113 118 101 125 98 71 59 75 94 141 247 282 327 219 106 121 100 115 126 119 127 127 81 81 96 116 116 111 113 105 83 45 32 40 39 47 64 86 55 85 88 77 100 89 81 69 63 50
125 120 76 83 76 93 55 93 99 96 107 164 190 256 225 196 169 59 122 110 158 170 203 238 259 282 334 346 284 234 221 194 166 30 30 34 41 59 80 76 80 101 87 64 85 73 59 54 51
140 130 95 79 81 64 77 108 95 84 76 90 147 236 279 251 112 95 85 129 152 174 213 226 263 292 317 354 320 291 276 232 191 79 43 41 61 71 68 79 93 57 74 56 77 67 50 44 44
130 152 120 97 70 56 110 106 98 76 75 99 71 156 178 140 125 125 82 80 130 176 202 246 272 294 267 266 276 257 238 244 213 167 68 62 111 105 98 131 123 61 75 70 73 51 53 43 35
189 179 96 106 112 83 50 60 59 59 74 25 55 156 184 187 168 156 159 131 60 125 167 192 221 246 228 222 163 177 191 197 195 190 115 97 112 135 134 151 121 62 114 126 83 81 72 52 44
175 167 130 135 107 95 45 30 28 50 20 58 47 64 183 207 245 193 126 126 72 78 105 123 153 178 171 154 117 129 137 158 159 166 118 85 123 163 185 192 172 107 143 166 141 118 92 55 44
158 141 144 141 130 113 80 85 68 63 80 22 24 14 81 186 222 232 199 149 140 91 51 67 75 87 84 99 80 59 67 86 89 95 104 76 157 191 216 227 210 189 173 159 136 119 88 64 41
152 162 157 142 128 103 102 82 76 71 88 45 -10 7 31 131 166 188 200 150 165 106 78 69 80 88 96 90 92 110 126 124 105 107 105 53 87 188 204 279 281 239 162 146 125 112 98 71 46
157 115 99 98 100 101 116 96 152 196 71 69 57 24 -9 53 141 161 193 214 172 180 129 95 83 100 122 122 113 112 116 125 134 124 151 163 143 172 183 312 354 275 143 136 122 97 105 76 67
105 98 90 83 87 121 130 116 169 90 128 116 130 106 32 19 131 154 164 200 184 169 185 110 94 104 129 123 114 131 116 109 101 145 139 218 211 158 235 203 284 163 203 100 139 94 128 102 84
103 95 83 50 126 135 178 163 134 106 156 166 160 158 115 14 72 159 128 124 163 136 145 134 99 84 93 104 135 134 110 112 94 99 120 140 190 186 302 261 218 273 89 97 105 144 115 109 99
106 121 132 148 91 138 176 178 77 104 194 160 129 94 98 68 95 181 116 89 140 104 97 96 123 107 103 117 125 108 105 95 103 100 92 83 126 150 313 314 239 180 147 86 87 144 120 128 109
98 128 156 172 105 113 58 41 93 68 75 58 43 49 87 139 119 145 141 84 127 102 95 101 98 121 131 154 127 113 120 92 127 134 90 27 151 178 369 336 196 176 143 101 75 102 138 132 119
31 65 72 120 111 51 46 30 49 98 87 55 33 30 77 162 124 115 124 122 133 149 117 122 109 105 129 112 113 120 119 121 135 152 120 159 207 275 264 254 219 178 127 89 98 113 152 127 154
21 23 55 51 31 48 26 32 82 72 50 49 39 37 65 100 108 94 119 153 161 149 141 130 82 106 101 89 94 86 105 122 114 138 118 79 165 210 224 195 201 202 147 98 109 145 171 161 187
49 52 19 65 87 3 -15 -6 70 55 43 73 49 38 70 81 163 158 165 166 168 171 155 129 94 58 73 71 81 86 78 114 94 141 125 133 110 229 225 217 190 170 167 177 157 176 168 185 206
19 -17 14 43 30 39 49 -19 -1 26 25 27 33 15 87 82 113 133 171 169 152 107 108 82 81 71 51 56 80 81 93 107 121 140 164 220 196 285 318 302 196 168 171 152 159 167 179 198 220
17 6 5 23 -12 28 78 39 -41 18 5 -11 -27 15 27 36 31 44 64 75 99 110 120 114 102 133 99 39 69 104 -20 -49 126 79 59 306 197 232 223 226 217 181 165 155 171 190 199 216 213
48 -12 -9 2 31 70 16 64 6 4 -5 -15 -14 -22 24 49 39 59 76 95 164 206 145 161 133 120 190 179 317 172 63 131 167 79 103 296 210 201 203 178 200 141 137 174 129 117 121 121 143
-35 -51 -46 18 72 106 -3 16 19 -14 -31 -45 -67 -80 -34 19 32 42 114 159 111 216 241 172 289 186 241 179 199 224 104 157 64 88 101 226 179 141 120 135 154 107 79 140 112 122 123 114 114
-13 16 35 90 76 53 25 39 7 -59 -6 -39 -55 -54 -22 37 97 97 123 146 126 227 224 222 163 159 109 238 256 276 90 88 115 -13 66 -18 60 32 90 85 109 36 57 43 69 106 62 71 83
3 50 34 28 36 68 72 71 40 5 -43 -66 -48 -34 8 3 70 144 145 156 212 163 187 105 61 129 105 46 -26 72 95 68 21 96 123 116 90 133 200 108 83 45 79 72 100 66 38 76 88
47 16 28 31 55 47 55 59 68 34 3 -3 -20 -14 7 36 78 178 173 111 149 145 99 73 45 34 26 24 23 8 17 25 21 32 1 15 70 60 49 86 138 41 61 76 71 86 99 109 76
150 122 104 77 67 45 64 75 64 91 92 82 36 15 18 45 83 126 141 151 82 49 28 14 15 41 38 27 23 35 57 56 44 49 57 60 49 55 58 57 49 69 53 53 60 82 77 58 92
102 96 97 115 109 77 56 68 15 40 52 45 40 23 28 62 90 122 117 88 44 38 46 50 39 19 5 1 17 39 45 48 58 65 75 78 73 74 79 86 88 71 61 77 83 76 79 80 82

GFSSGP_con_3kmhel_096.txt.gz
Helicity
103 112 99 187 168 188 136 105 105 91 104 124 192 184 155 137 122 141 28 -4 32 45 66 96 99 77 64 71 72 95 95 92 78 72 81 86 86 71 59 50 36 42 55 96 88 85 78 69 59
110 128 188 170 172 165 100 82 64 91 126 135 167 181 169 170 108 77 44 51 32 51 65 72 84 90 85 78 69 72 74 73 73 61 58 57 66 59 51 49 39 57 86 103 84 82 82 84 64
111 146 162 125 120 95 76 71 130 143 146 166 186 164 179 181 148 88 78 40 37 73 83 85 89 89 92 103 92 87 79 59 52 59 47 65 68 57 57 51 56 73 114 99 79 80 80 77 64
120 162 154 148 87 51 68 88 134 182 203 214 189 207 187 144 191 159 46 32 48 69 81 78 84 83 95 107 99 100 86 74 59 46 43 56 52 41 61 63 75 98 136 102 81 81 80 67 52
153 130 143 104 85 96 69 71 65 105 133 200 219 230 247 199 227 89 74 33 51 58 55 65 67 85 87 99 103 102 91 81 73 54 48 47 47 42 76 59 88 119 124 101 87 79 77 66 48
120 95 90 60 49 63 73 57 64 76 91 137 181 203 202 129 212 177 89 92 73 60 76 81 54 71 93 87 105 120 119 100 82 64 44 40 31 52 75 80 78 112 115 92 102 81 71 59 51
103 110 66 64 42 52 54 82 106 90 87 112 137 156 172 192 196 169 144 109 82 88 142 144 128 155 205 231 221 229 221 199 145 64 51 31 29 43 68 91 77 85 123 117 102 82 69 54 46
108 123 97 62 59 51 98 105 102 121 97 115 108 140 205 216 230 156 138 149 116 99 124 178 232 231 224 223 200 194 199 173 130 93 73 52 53 33 59 85 73 95 76 99 108 87 68 57 52
112 153 102 76 69 70 104 107 79 74 55 105 111 152 140 184 211 218 170 170 210 108 116 168 193 229 222 227 195 178 172 163 125 106 106 91 103 76 78 99 88 103 102 67 90 90 74 66 60
164 139 74 100 101 105 105 61 53 60 56 38 49 97 140 116 161 213 236 200 193 157 113 106 142 166 191 154 181 152 148 139 124 77 99 115 141 99 97 114 80 119 81 70 72 97 87 85 79
134 120 111 113 103 123 74 74 60 78 36 37 45 69 84 147 157 195 203 171 161 186 139 83 89 119 126 146 136 113 94 89 88 87 43 75 122 120 114 152 126 148 94 98 105 121 129 102 83
152 124 134 123 126 94 86 79 88 111 134 84 69 51 55 100 154 189 217 207 186 155 156 98 63 78 82 99 97 77 68 59 48 94 68 71 91 123 136 143 167 177 175 162 195 172 130 104 79
144 133 123 110 86 79 79 95 107 100 107 87 79 51 51 63 121 185 188 182 187 163 162 121 77 58 73 75 70 59 41 35 60 82 92 117 148 132 131 194 186 201 214 185 187 173 145 109 83
108 87 85 72 80 94 84 79 113 190 54 98 104 98 76 67 51 148 199 199 175 193 179 151 109 87 87 71 68 65 61 70 71 86 100 154 139 164 191 180 222 236 249 226 188 175 148 108 78
101 91 82 50 45 35 55 63 82 83 64 121 154 188 159 140 87 62 189 205 190 231 250 222 204 177 135 96 84 83 86 95 103 105 106 138 181 181 192 251 235 242 295 300 240 148 160 102 93
89 69 57 8 42 23 64 83 76 63 108 156 210 200 175 127 103 57 91 187 162 198 213 207 174 179 139 108 105 87 61 77 89 91 93 103 149 208 191 188 236 285 243 379 355 332 106 100 90
98 68 65 96 94 52 53 88 97 74 137 196 184 146 117 104 78 77 60 139 129 151 184 174 151 144 135 128 119 97 93 87 70 78 67 81 127 163 191 224 261 289 329 346 411 292 178 51 59
78 112 109 114 71 102 79 141 82 56 63 82 65 60 62 30 23 63 85 157 110 111 136 122 144 149 158 140 125 106 100 94 80 75 88 57 92 137 194 238 204 343 342 309 361 277 57 81 18
97 113 110 74 44 32 27 84 123 122 128 114 83 91 52 14 -3 32 39 101 119 93 118 125 126 96 102 142 106 87 96 84 76 94 65 91 118 115 156 217 183 305 338 259 320 231 111 31 79
61 45 53 18 -1 23 51 77 -15 14 64 44 59 64 48 36 16 35 34 76 104 112 140 162 144 110 89 113 99 104 94 77 69 55 88 128 140 109 108 188 175 294 296 271 277 282 355 67 59
21 37 52 35 63 42 17 48 14 34 60 77 49 30 63 45 59 67 88 124 213 195 152 146 121 97 83 89 110 99 71 46 52 58 105 139 154 138 92 237 357 398 371 320 282 250 124 108 141
10 16 -1 -5 9 56 98 37 38 44 31 56 24 25 30 47 41 50 82 130 260 217 167 122 132 133 124 97 67 61 55 50 39 79 124 127 120 152 183 159 127 213 213 171 155 227 222 176 146
11 29 30 9 14 85 139 84 30 55 30 28 14 20 15 27 47 48 88 117 169 204 172 153 164 151 162 143 88 91 92 73 13 49 100 128 91 159 244 197 163 190 187 211 193 98 141 122 165
42 -35 -51 14 17 122 56 68 41 -7 -17 -16 -34 14 16 33 41 52 62 78 123 165 157 158 176 173 164 214 204 204 140 99 14 99 101 70 92 326 350 297 344 290 299 123 115 90 118 144 186
-61 -48 -24 -17 -11 33 22 60 40 -22 -31 -9 -53 -45 -24 -10 17 48 101 115 135 184 228 196 233 231 184 153 153 194 198 153 92 83 137 114 135 318 284 238 189 251 261 286 124 130 113 120 118
-39 -5 35 61 69 78 73 46 30 -13 -16 -30 -43 -40 -43 -50 3 75 113 75 135 174 226 282 166 264 257 268 197 144 199 72 83 130 33 55 42 75 257 73 72 113 91 94 108 124 111 102 142
-34 13 13 45 62 107 70 47 36 15 -9 -59 -63 -31 -28 -22 25 109 127 103 73 147 162 254 259 174 76 59 148 161 129 141 54 21 117 96 87 79 111 175 110 105 99 130 79 93 67 146 98
47 24 10 25 71 63 56 40 57 26 17 17 -5 -17 -10 26 109 181 184 203 238 179 139 114 104 77 62 20 17 32 32 6 21 18 29 21 27 81 104 75 84 114 139 102 61 50 103 107 73
80 54 68 70 71 50 72 58 44 66 61 45 31 39 36 70 98 137 153 188 159 106 70 50 36 32 24 25 23 26 30 31 34 34 40 33 36 53 61 57 52 56 89 93 60 44 51 69 79
104 102 93 90 78 82 77 75 12 16 47 47 61 48 50 64 94 143 140 107 71 37 21 22 17 18 20 12 5 9 15 17 33 51 55 57 60 61 60 58 68 80 92 92 89 98 68 67 61

GFSSGP_con_3kmhel_099.txt.gz
Helicity
68 65 71 135 140 150 125 101 116 88 98 114 184 143 114 106 85 109 47 35 12 4 19 54 72 70 104 91 81 78 82 83 79 70 68 77 78 72 59 45 33 38 65 93 81 76 68 65 59
82 87 127 124 152 136 107 105 81 119 145 149 139 148 139 155 136 82 54 97 5 -7 18 23 48 71 83 94 93 96 82 70 59 45 53 46 61 45 40 40 36 37 68 87 74 69 60 63 52
87 111 135 145 130 100 112 118 142 163 160 158 128 126 154 213 178 145 120 104 42 6 17 28 55 60 75 81 84 87 80 80 63 40 37 31 58 29 32 29 39 57 86 103 88 73 76 66 63
94 121 130 120 73 90 119 97 133 187 171 175 148 122 138 133 152 148 138 95 58 22 11 31 62 67 79 81 85 90 83 74 68 56 35 47 47 42 28 35 51 86 116 95 75 71 67 59 61
128 103 91 69 47 74 91 86 93 117 114 131 142 159 160 129 145 107 150 137 103 45 21 26 49 69 67 72 78 82 84 76 80 61 54 44 28 37 36 54 78 107 108 83 75 78 70 51 40
100 75 60 37 32 46 69 70 89 104 129 126 128 136 135 136 181 180 137 155 112 97 34 26 32 58 68 80 76 80 90 89 84 81 64 46 39 30 24 70 71 93 107 86 66 72 64 54 43
93 93 62 58 57 59 64 82 66 81 117 119 127 123 129 141 204 191 137 119 136 125 104 57 56 51 68 94 122 134 124 115 95 78 63 54 37 45 43 56 79 79 89 87 79 68 61 50 50
103 111 83 60 69 72 87 79 62 65 55 110 100 103 135 168 202 218 180 142 135 126 127 141 117 106 129 136 147 120 105 89 76 58 62 69 66 49 42 61 69 84 76 83 87 83 66 48 50
114 134 92 84 76 89 81 96 59 59 52 70 85 82 76 101 128 182 200 204 202 154 139 122 117 111 128 141 133 131 112 106 77 51 54 74 83 78 70 69 71 70 70 84 80 83 75 66 59
158 132 83 97 95 103 83 63 56 56 65 58 55 51 54 58 58 115 197 245 253 246 165 119 103 93 114 121 137 131 112 102 71 61 66 78 84 101 97 89 83 89 77 83 58 78 82 85 67
141 127 99 110 111 107 72 67 48 52 47 67 66 54 73 57 64 75 139 203 239 226 182 96 87 78 73 86 97 96 99 99 77 49 33 35 65 76 102 106 107 114 89 105 59 70 89 66 72
146 124 106 97 97 79 67 60 63 63 72 54 61 71 70 75 74 88 92 172 223 237 197 141 104 100 88 90 75 74 79 70 65 38 51 -6 54 59 81 137 132 139 160 137 81 93 84 83 75
122 103 95 74 53 56 60 58 70 57 51 31 60 72 62 64 80 98 103 95 164 210 219 174 138 125 85 85 78 68 78 61 55 48 37 46 43 71 100 101 130 178 231 181 145 118 100 108 86
76 78 71 50 62 51 50 47 66 -3 5 32 43 75 104 82 64 88 117 126 128 177 216 204 170 132 117 109 73 69 77 70 59 30 28 54 54 76 92 149 151 164 216 240 248 207 175 178 141
76 84 68 56 63 55 52 35 -16 -38 59 35 73 125 128 130 111 92 92 129 164 176 184 201 211 170 141 114 77 70 62 64 47 41 46 59 66 82 94 102 167 178 226 194 276 310 277 195 160
73 55 88 71 80 63 60 50 36 68 110 136 135 116 130 109 88 87 99 88 132 172 195 192 208 185 157 144 133 104 71 49 38 36 45 55 68 67 78 111 131 159 239 243 276 307 298 242 193
114 72 60 84 59 50 57 85 84 124 103 77 60 56 59 76 67 92 102 112 112 160 212 189 192 191 160 139 127 119 107 93 66 68 70 47 55 69 70 104 126 148 197 215 243 291 289 338 334
71 82 73 72 54 78 79 92 119 94 57 40 41 79 97 95 88 81 49 67 94 130 216 209 169 149 124 141 141 134 113 87 86 80 82 74 67 59 86 102 95 116 177 203 246 244 316 325 298
58 65 79 107 46 67 61 96 105 83 28 29 53 90 123 116 93 49 41 59 89 98 219 172 147 137 139 174 163 126 104 106 96 82 72 69 64 60 90 118 107 123 180 230 290 265 255 360 434
74 73 74 65 22 33 44 44 28 -0 -2 28 80 108 89 73 54 42 55 66 76 103 168 109 97 126 130 126 93 92 101 93 81 71 73 64 51 75 104 110 126 140 212 266 323 284 315 327 337
43 69 66 41 40 17 16 2 37 31 32 84 68 74 54 29 40 38 59 65 104 152 138 154 154 201 165 93 79 85 94 96 82 71 70 49 47 82 94 111 123 147 320 343 339 280 317 406 393
49 6 -0 6 23 42 75 66 111 62 30 75 35 61 49 48 27 28 37 70 91 158 178 156 164 131 116 89 60 73 104 85 51 36 30 52 55 88 110 120 134 137 209 393 414 292 366 411 512
2 17 33 41 66 66 104 79 45 64 59 25 22 45 9 1 32 19 30 37 70 155 149 147 148 143 113 135 151 87 83 112 80 22 -21 29 74 78 93 155 121 196 208 198 363 581 395 449 355
26 17 9 -3 10 13 -48 31 35 24 -22 -41 11 28 3 13 13 22 54 71 90 149 177 187 195 216 213 209 230 275 263 202 178 131 43 87 120 66 48 103 158 167 200 199 171 167 184 199 220
-2 5 -12 -16 -48 -39 44 77 43 50 -19 -23 -34 -38 -10 -15 -10 40 81 121 162 194 226 222 280 314 258 210 238 250 256 216 154 123 98 119 131 197 232 188 202 210 149 209 248 189 270 241 153
21 -16 -22 -19 -19 37 91 77 93 15 9 -15 -28 -16 -28 -56 -50 2 52 52 73 156 178 194 225 348 369 250 241 232 257 138 98 79 120 166 185 95 97 209 180 95 83 109 108 173 205 105 83
-20 2 -0 36 30 56 85 103 70 23 -7 -25 -49 -51 -53 -56 -44 38 131 126 72 141 261 335 67 114 300 220 160 211 162 135 70 78 36 104 64 57 76 85 154 165 157 248 102 72 117 111 94
22 31 29 27 46 80 85 84 102 65 7 -2 -9 8 -13 8 74 97 116 129 128 113 106 169 143 104 44 13 -7 9 57 69 23 25 50 52 59 65 71 78 58 90 81 154 147 119 151 141 97
49 34 40 56 59 69 76 59 26 31 42 27 33 17 21 28 68 95 123 129 170 153 55 30 4 -14 -17 -10 -1 13 26 28 25 30 46 44 47 56 57 57 62 86 83 77 44 63 79 42 92
87 103 69 89 95 110 106 101 25 14 34 57 45 32 27 50 87 136 125 85 52 3 -8 -0 1 1 1 -4 7 17 27 33 36 51 52 48 50 59 64 71 79 82 69 73 92 112 123 116 91

GFSSGP_con_3kmhel_102.txt.gz
Helicity
63 61 62 80 113 122 108 108 124 95 100 112 104 89 100 126 156 163 51 89 89 55 2 31 35 50 56 64 69 73 69 65 61 63 55 52 62 57 44 28 25 20 53 66 83 81 72 73 58
73 78 94 108 143 106 110 116 105 141 122 93 97 108 101 144 140 94 60 85 50 16 -14 3 41 36 50 66 53 62 76 83 67 47 43 42 44 49 27 30 22 11 43 68 87 71 75 48 44
84 106 107 132 122 108 165 123 142 142 142 115 91 115 129 135 123 148 90 105 68 31 -9 -1 31 29 43 51 68 62 64 71 64 43 45 28 37 23 2 15 18 18 39 63 102 55 96 55 43
100 96 102 128 96 123 152 110 140 120 113 119 116 105 118 145 107 134 121 123 105 92 20 36 21 34 46 47 56 56 61 60 58 44 38 40 20 22 -10 11 29 43 65 92 93 73 69 55 54
130 97 101 105 113 127 119 123 135 113 111 116 140 128 111 112 93 118 118 129 139 111 113 32 30 37 39 43 50 51 51 52 53 54 43 51 36 23 3 32 38 58 88 76 62 65 59 51 46
84 78 52 43 61 73 78 90 85 88 94 108 115 123 108 118 149 151 153 136 102 119 109 68 43 36 47 50 55 54 50 42 42 39 40 46 38 28 20 44 60 68 81 60 46 49 55 48 34
59 50 57 66 68 63 62 54 42 62 62 69 110 97 113 114 178 165 165 155 130 100 102 116 48 41 48 58 69 85 84 72 51 39 39 37 36 34 23 31 63 63 71 62 49 46 51 47 37
84 76 57 57 73 74 61 54 53 55 49 72 69 58 102 120 138 149 157 159 166 126 101 110 133 60 48 60 74 76 71 63 59 55 51 47 47 42 44 44 51 65 81 72 52 50 50 53 49
90 93 83 81 68 81 68 75 51 48 37 38 52 43 54 71 61 93 118 151 184 192 153 110 108 114 76 59 71 81 56 58 52 46 36 49 40 39 46 62 76 70 78 81 65 52 69 68 64
118 105 100 98 87 84 81 78 75 50 35 31 30 21 30 38 50 38 65 105 165 216 237 158 114 106 107 98 81 65 76 85 47 47 48 41 33 35 42 71 86 88 80 73 70 66 79 85 60
122 143 96 92 81 92 81 66 58 38 33 28 27 39 52 47 52 55 51 56 105 160 198 212 153 110 102 97 86 89 108 82 69 37 27 49 55 50 50 57 77 82 81 82 83 83 73 68 75
124 118 108 76 70 79 78 72 52 41 33 27 36 54 60 54 58 75 75 68 74 105 152 184 161 123 104 110 105 95 89 83 89 65 47 35 49 46 56 31 37 60 81 83 103 91 87 70 75
118 96 77 60 55 53 50 43 39 35 11 22 47 63 51 66 72 66 75 79 65 74 108 148 133 113 110 122 121 110 99 84 69 85 88 82 32 33 48 51 35 49 61 71 128 107 91 104 97
101 83 68 65 59 43 38 26 45 9 59 69 68 43 59 65 55 82 83 81 103 87 82 113 131 134 128 123 119 123 114 99 94 84 82 66 49 58 48 65 83 73 64 83 84 92 81 133 120
83 82 60 49 59 53 21 -11 -40 22 70 63 47 55 65 55 64 70 66 88 109 140 115 122 124 145 174 170 132 136 130 118 93 78 77 50 54 50 36 52 73 89 84 79 97 109 110 140 187
82 58 80 66 71 52 38 54 31 63 89 83 72 62 54 58 60 55 61 73 94 107 152 159 150 144 174 184 157 137 114 115 110 87 74 58 35 51 61 74 81 90 110 108 132 143 183 191 251
93 90 80 61 82 51 55 57 74 90 82 94 93 81 66 48 56 88 91 71 72 91 121 170 210 172 178 183 174 131 116 122 105 92 75 56 56 60 75 90 82 93 121 145 153 142 177 229 240
80 81 78 72 71 63 51 37 75 64 65 72 76 71 57 62 91 120 138 108 88 75 84 100 201 222 187 191 164 156 156 141 113 90 78 76 81 72 85 90 75 82 112 117 162 169 170 191 202
75 79 83 66 49 48 58 45 64 50 70 74 97 96 62 60 63 75 81 97 103 94 79 86 139 234 181 184 183 185 176 144 109 93 70 89 91 83 95 104 92 103 107 101 110 127 163 176 219
68 67 57 45 31 23 56 41 41 93 101 111 81 73 65 80 83 64 68 75 94 112 108 104 136 210 149 130 159 183 164 127 110 94 96 88 79 82 96 103 97 77 115 93 125 149 183 194 263
46 46 52 45 36 6 3 23 89 93 71 63 51 50 53 59 72 62 57 47 70 113 178 173 204 206 205 189 154 144 120 129 96 89 93 76 64 62 80 90 98 87 113 142 127 134 195 213 254
48 12 19 27 17 39 72 52 43 91 72 59 55 42 43 46 54 42 63 40 50 78 131 185 146 186 158 161 143 120 102 68 58 51 66 67 43 42 55 78 80 105 142 127 127 139 244 295 401
40 12 3 13 28 32 57 28 38 53 92 74 35 44 43 33 18 12 18 12 38 46 48 73 97 119 136 129 132 118 56 31 92 160 153 131 79 81 70 62 75 122 161 156 152 185 278 340 384
10 17 -4 27 33 14 30 30 18 63 44 5 11 50 45 24 28 35 51 61 22 53 63 72 88 103 91 76 102 154 213 228 236 197 163 140 76 50 120 140 80 109 130 140 170 179 188 301 409
11 -3 24 27 27 13 119 47 -58 44 15 -24 -53 -45 -49 -25 -35 -22 37 72 112 118 122 131 158 195 176 140 168 212 220 296 260 214 171 145 156 107 172 123 250 127 63 121 218 248 246 204 215
4 7 5 -12 10 11 27 -37 21 23 -3 43 -35 -47 -60 -80 -69 -54 45 46 32 96 159 157 178 254 255 258 204 189 7 121 62 127 105 161 103 125 108 131 118 171 198 126 106 72 97 184 166
-15 7 6 25 33 10 15 42 78 27 -5 -20 -36 -20 -46 -51 -53 4 57 61 75 129 241 285 202 341 331 212 163 185 214 192 151 70 2 27 24 79 134 60 66 63 120 133 196 236 149 48 99
11 1 23 40 16 15 46 20 61 40 39 22 24 5 -10 0 -6 16 32 4 25 43 64 175 120 147 156 142 174 123 86 123 154 70 38 40 32 39 54 36 88 53 103 113 85 116 158 135 173
79 56 37 40 49 51 44 50 101 115 124 99 65 49 40 19 11 31 56 79 67 61 53 65 -9 -28 -26 -20 -19 -11 10 20 18 29 51 50 52 70 71 63 53 33 38 38 60 61 96 69 70
78 76 50 60 56 71 74 68 53 43 49 66 57 28 15 32 64 51 36 41 35 38 23 -26 -35 -13 -5 -2 3 13 26 37 41 43 46 46 51 46 46 60 61 61 57 63 68 73 63 70 83

GFSSGP_con_3kmhel_105.txt.gz
Helicity
83 45 48 86 114 104 69 124 180 103 87 130 114 95 167 144 173 185 38 126 117 98 66 34 37 23 27 36 46 48 48 44 33 38 32 44 46 58 31 26 16 4 2 18 24 41 54 54 59
81 76 99 117 138 83 73 199 73 130 159 92 83 77 86 152 196 130 89 94 102 71 61 10 62 27 21 33 46 42 45 40 46 53 36 36 30 37 33 10 4 0 21 40 56 65 76 65 41
89 97 130 152 126 79 194 149 173 116 100 85 82 135 155 187 106 143 86 61 88 70 94 24 53 24 21 24 35 42 46 47 42 48 46 40 21 20 19 5 -3 -2 17 26 61 87 82 68 38
108 100 113 142 103 184 233 200 147 86 96 110 137 103 92 125 88 109 120 69 81 85 74 44 39 21 9 18 26 32 43 42 38 33 28 25 23 22 12 11 6 11 17 44 72 78 74 56 43
125 113 150 145 139 167 186 150 138 119 133 118 134 126 111 93 98 110 124 110 103 114 104 155 49 46 38 34 29 29 33 38 40 39 25 20 20 11 15 26 27 43 32 60 62 62 57 59 49
105 135 116 119 138 114 117 104 111 114 114 109 115 115 105 86 99 104 111 135 117 123 110 115 74 59 59 54 50 41 40 41 40 40 31 34 27 21 16 30 38 51 50 57 47 48 50 49 49
81 68 88 109 86 50 67 69 62 89 75 72 92 95 124 15 67 91 104 114 133 116 129 119 114 67 62 60 61 65 55 45 35 25 27 31 42 33 23 36 39 44 58 63 49 43 45 50 44
88 82 53 51 46 64 50 49 56 52 55 85 58 53 50 102 55 74 80 102 104 111 125 117 124 114 60 52 61 58 56 53 45 47 32 33 41 40 33 39 52 45 60 70 58 51 47 50 54
74 87 84 76 69 71 53 56 43 51 41 30 26 33 44 63 42 50 42 61 76 99 92 134 105 113 118 100 75 74 64 61 60 52 42 44 43 33 23 38 43 63 64 79 72 55 56 72 78
99 119 125 110 104 100 76 81 73 50 39 21 13 13 21 35 45 40 35 27 52 79 106 95 124 114 115 117 117 71 71 79 75 65 44 72 42 35 28 59 88 76 78 86 81 67 70 89 75
104 172 79 80 94 95 88 72 67 52 45 20 52 64 70 62 51 51 56 51 35 60 81 100 98 111 111 131 116 121 116 116 115 100 84 64 79 95 69 57 82 77 79 79 80 85 85 66 74
109 116 107 84 77 84 87 76 50 27 30 54 58 57 57 52 50 59 69 76 75 69 60 96 88 88 102 115 130 121 103 112 120 130 144 76 44 66 82 72 52 78 70 56 89 84 70 60 58
97 83 75 77 72 72 66 48 46 43 47 55 67 50 38 47 56 60 64 75 90 92 76 80 113 95 76 101 120 135 128 115 105 107 117 139 170 121 62 48 19 77 58 54 91 98 72 81 53
111 91 86 82 77 58 61 59 62 38 84 71 55 45 47 50 54 64 68 77 92 107 115 102 96 129 106 89 94 131 149 148 140 121 100 76 89 87 88 79 74 71 80 53 79 98 90 62 107
102 109 73 78 77 76 54 39 10 33 66 53 65 62 62 58 62 68 78 81 80 85 108 124 116 121 154 124 121 132 130 172 155 129 107 89 88 78 75 76 72 44 66 70 98 109 112 97 98
105 101 99 76 65 58 46 70 45 52 57 74 81 77 84 86 82 77 65 60 53 63 74 90 128 124 157 161 143 157 183 176 164 162 136 89 79 86 89 73 60 41 61 72 87 134 151 127 134
91 111 90 41 34 48 23 70 104 84 67 62 79 95 77 84 95 107 98 81 71 63 69 84 94 124 147 171 162 172 177 195 164 125 112 105 96 85 90 80 70 74 92 106 129 115 128 176 189
94 99 85 69 48 38 36 22 43 74 56 62 90 80 102 131 131 106 118 105 77 81 72 87 89 84 106 152 182 207 213 184 146 134 116 93 98 76 85 99 100 99 113 121 110 113 117 135 184
99 87 72 63 74 68 51 47 45 63 77 79 101 107 126 146 116 141 110 84 80 84 138 130 97 79 86 146 189 175 182 172 146 133 124 108 94 81 103 117 124 118 115 111 98 108 110 138 176
79 84 81 85 72 49 49 34 29 66 138 139 123 140 143 126 113 97 91 80 65 80 120 170 170 111 101 140 209 177 133 145 155 151 134 113 93 92 104 127 131 119 128 113 111 117 143 151 161
76 97 103 74 64 -1 34 14 75 81 87 86 101 120 96 88 83 82 68 61 62 73 92 129 180 174 185 249 150 177 212 228 209 133 110 76 60 46 75 90 119 122 128 157 144 125 130 157 169
76 76 66 56 59 59 72 77 50 96 56 65 60 94 63 57 69 78 51 37 38 54 50 71 74 129 178 234 194 222 164 156 171 135 122 118 223 184 159 144 137 111 132 140 139 122 142 180 184
72 44 31 24 17 35 87 59 44 61 66 107 112 97 93 59 54 34 47 49 38 74 53 33 46 64 73 99 136 145 179 187 172 141 134 139 136 155 177 158 113 85 88 93 100 117 148 177 169
35 11 2 13 32 33 50 27 31 95 128 75 110 139 67 49 53 55 46 20 29 79 90 54 16 26 64 55 69 86 97 65 105 146 133 125 154 186 143 136 112 113 118 72 83 109 124 179 152
14 15 8 11 28 43 60 58 24 126 132 138 99 67 55 5 -78 -78 -55 -32 -16 -12 101 95 96 107 132 139 66 62 69 119 104 106 179 225 198 237 171 165 102 151 101 274 203 98 127 84 140
13 22 36 21 37 41 75 38 94 180 101 110 74 52 73 72 -57 -75 -47 -36 -21 44 60 108 158 183 228 259 254 145 159 97 198 122 150 154 161 189 182 125 120 89 130 79 257 240 274 149 122
23 12 10 -8 -23 -17 15 68 122 139 58 51 35 35 -17 -42 -67 -47 -17 11 14 56 123 183 186 217 223 124 216 204 198 266 170 250 84 30 20 22 103 83 59 63 100 16 52 122 167 248 259
12 7 -6 -6 -19 -25 17 60 65 82 103 79 68 58 28 16 -2 -20 -8 14 24 27 78 120 139 168 79 55 205 157 100 105 138 92 66 35 40 43 28 42 27 30 45 -7 -55 -52 40 89 118
17 12 23 29 23 7 5 17 28 37 63 66 71 69 58 34 3 9 47 33 15 -2 14 29 36 2 -3 -4 -19 -10 15 17 20 23 36 52 55 58 71 67 67 42 35 36 15 3 26 31 59
42 40 33 36 24 46 42 30 78 50 54 27 21 11 -16 -21 16 28 5 15 29 32 41 39 35 33 27 -9 1 4 12 14 20 30 37 38 38 41 40 34 35 30 24 30 51 64 51 58 56

GFSSGP_con_3kmhel_108.txt.gz
Helicity
132 107 120 124 133 113 90 118 233 176 151 184 169 140 161 262 293 219 67 119 158 131 35 40 52 31 23 20 19 36 34 37 28 7 25 14 23 45 24 19 16 5 5 4 15 32 48 48 38
151 83 130 163 154 106 92 180 158 206 256 138 107 114 140 153 214 143 53 21 88 126 102 47 50 29 27 29 23 29 27 26 14 22 19 11 22 15 25 9 -1 -8 1 2 42 51 66 64 52
120 123 176 162 158 141 211 200 324 205 121 118 119 177 220 195 152 101 102 60 58 78 90 112 57 38 35 31 36 27 24 29 29 28 38 28 21 14 12 2 -3 4 18 36 48 69 69 71 58
168 159 153 172 123 210 222 345 208 127 116 155 147 149 105 140 82 69 110 103 71 77 63 87 26 29 33 37 39 42 40 35 38 36 31 23 13 7 19 12 -1 13 19 25 53 71 68 64 57
145 174 214 174 155 200 264 231 207 127 156 159 200 124 107 98 94 84 79 111 104 109 112 84 51 37 31 30 33 35 41 44 42 35 29 26 26 26 26 30 13 23 25 37 58 56 59 53 46
194 189 217 190 191 209 163 187 178 183 142 88 134 169 86 59 54 48 54 62 80 80 138 140 120 56 46 37 36 41 46 45 46 44 41 37 36 34 35 39 30 34 35 48 59 53 54 52 50
199 191 252 229 228 150 139 125 168 191 143 149 95 121 52 43 -40 -0 23 56 53 55 90 117 125 154 60 59 58 50 49 48 45 38 37 37 37 39 43 47 39 37 37 52 57 57 51 49 45
200 165 161 211 163 130 93 88 115 133 134 54 48 103 119 52 7 15 38 40 50 50 54 90 110 117 131 99 65 64 61 51 48 46 42 42 43 43 45 51 47 46 41 55 65 65 63 61 59
128 145 105 109 120 33 36 47 42 47 38 46 51 56 39 54 9 1 -16 18 33 48 39 59 88 99 110 103 89 61 70 74 72 72 64 67 77 66 55 61 48 49 57 61 64 61 64 64 65
140 182 197 163 179 95 56 83 65 55 43 34 21 33 71 79 41 19 15 17 15 35 50 47 49 68 85 103 125 97 78 87 80 84 84 98 76 82 75 96 64 66 64 68 71 70 73 81 103
110 202 87 93 117 130 84 45 68 44 41 27 92 77 50 35 36 25 24 31 32 32 30 52 68 68 61 84 123 128 119 107 105 132 133 103 106 99 85 109 114 117 88 105 91 89 103 119 103
128 100 116 76 68 78 73 68 49 27 42 52 54 52 45 35 30 34 41 50 54 60 58 58 66 76 79 67 93 114 130 133 130 122 117 134 112 112 42 43 126 139 133 115 130 123 117 106 92
130 85 81 74 47 41 51 41 30 53 39 66 87 56 35 34 39 46 48 56 72 88 89 86 67 95 108 101 81 104 110 130 126 140 114 114 101 105 66 67 125 150 90 131 126 130 117 117 81
128 103 75 69 66 50 57 55 72 32 61 58 36 31 33 44 56 56 62 75 84 90 102 107 107 87 92 156 112 99 116 114 150 160 144 95 103 118 123 105 117 142 123 102 95 116 115 130 142
94 78 37 45 66 65 64 60 11 25 81 46 68 68 72 79 94 87 83 85 89 88 87 95 94 83 100 124 161 133 114 119 135 155 188 134 126 112 99 110 119 106 95 65 70 93 102 123 123
94 97 78 78 46 71 71 75 29 60 -16 65 64 94 117 88 63 61 97 117 131 115 114 100 84 80 80 84 135 164 116 141 139 169 188 170 119 129 125 112 84 71 78 70 68 82 106 113 108
97 109 91 39 38 70 52 73 125 72 63 45 81 130 104 102 132 226 227 159 132 130 118 120 106 75 76 84 89 149 158 172 162 154 193 151 126 138 123 112 86 76 66 63 85 107 120 120 112
96 100 102 77 22 33 45 44 56 71 62 70 102 123 86 133 158 134 165 143 111 113 96 97 75 145 84 92 102 108 175 198 170 167 157 150 165 186 170 117 104 104 105 101 103 120 131 141 145
141 125 79 87 92 51 33 36 59 68 71 154 162 159 177 152 143 135 101 93 97 88 75 85 96 105 145 122 123 117 142 178 161 138 135 158 171 172 163 133 132 122 98 95 109 144 133 131 162
109 103 107 104 81 54 66 56 75 63 169 246 176 154 129 136 123 96 73 81 89 59 56 59 75 75 123 125 148 139 129 139 146 149 166 178 190 199 194 185 144 118 108 107 128 155 165 184 195
123 152 153 112 90 41 54 21 82 94 109 93 69 142 151 126 102 74 57 75 79 59 59 44 37 42 85 113 94 83 99 110 158 183 166 190 261 239 202 189 156 132 114 99 118 151 167 180 179
139 114 105 79 76 53 73 45 85 109 25 78 89 154 139 99 98 63 64 67 58 66 85 69 27 17 18 64 57 80 60 98 181 197 227 218 220 181 101 112 121 102 86 83 98 118 145 151 145
89 84 62 59 37 40 63 84 37 107 35 142 181 163 84 26 65 60 60 62 77 77 98 113 65 30 54 45 62 51 59 106 107 129 126 147 145 186 158 160 137 112 87 122 108 100 107 152 146
53 41 22 11 21 54 27 49 16 103 127 163 133 132 54 37 36 52 40 33 42 84 110 113 96 81 71 75 71 47 100 89 107 114 91 123 104 112 157 187 160 113 128 97 121 124 188 116 152
37 28 28 47 38 24 51 58 43 123 172 140 87 72 51 49 39 48 14 -53 31 66 94 59 103 69 99 142 140 165 110 118 137 185 91 85 148 152 158 173 193 214 160 132 101 119 227 316 267
25 31 43 24 37 39 82 31 27 121 160 175 91 45 46 37 38 50 51 38 25 25 69 61 65 74 80 80 139 135 154 131 112 119 118 89 120 276 244 192 149 51 88 72 32 64 62 221 357
14 16 33 16 3 4 -16 25 77 125 167 120 103 86 90 83 75 40 4 19 24 43 70 108 106 82 110 176 190 128 56 79 93 95 99 148 241 116 41 22 65 31 -1 -10 -11 -42 111 120 43
10 -1 -4 -10 -18 -7 23 59 77 63 86 92 89 82 74 66 61 13 6 -3 12 5 24 28 -7 3 14 4 19 73 45 32 45 61 95 98 50 16 14 21 25 28 16 10 -15 -29 -35 -51 2
7 5 3 4 6 6 3 2 32 18 64 46 43 34 14 12 -29 -42 -5 22 23 34 15 22 18 10 14 15 15 13 9 18 31 35 23 18 23 26 37 50 59 60 68 69 51 36 9 -30 -38
29 16 4 -4 4 27 3 21 67 38 45 47 21 -2 -13 -30 -38 -21 23 39 45 45 44 45 35 40 33 26 30 25 16 12 19 22 24 26 28 29 32 39 36 32 38 48 48 54 64 66 64

GFSSGP_con_3kmhel_111.txt.gz
Helicity
141 171 165 154 158 144 127 155 160 197 215 159 126 137 144 174 198 159 20 34 98 85 85 36 32 33 37 38 32 31 31 18 9 17 12 7 19 29 24 21 18 8 -1 7 19 28 54 51 51
132 173 174 163 171 155 159 224 281 231 133 141 164 205 168 145 156 119 66 97 46 77 70 72 39 27 39 35 36 42 42 30 23 12 10 12 12 19 16 11 6 2 4 -12 21 46 51 59 46
150 144 186 172 165 180 226 226 231 228 191 184 179 193 177 133 137 118 90 95 45 86 71 99 33 32 30 35 35 32 36 31 26 22 24 20 14 20 18 4 8 18 30 52 37 44 58 62 46
191 196 182 176 181 307 244 228 183 167 169 187 162 188 127 110 85 47 79 73 52 69 103 107 74 39 39 37 39 41 33 31 34 42 41 35 29 24 16 17 19 21 31 37 39 52 51 66 54
203 207 245 209 232 251 315 258 219 173 160 169 178 143 120 86 50 48 39 54 68 68 83 101 127 57 42 47 47 45 42 36 34 31 34 30 27 28 31 37 30 27 30 35 42 45 45 52 50
261 216 259 229 297 261 255 232 244 198 163 147 170 125 88 32 51 12 25 39 39 68 86 95 98 110 66 56 45 40 41 42 43 36 37 36 38 35 38 48 41 39 37 44 59 60 51 47 47
254 245 222 227 226 273 197 180 222 232 157 136 105 150 60 29 -32 -7 22 38 38 46 69 92 98 95 115 83 76 55 40 41 46 44 45 42 39 35 33 47 47 46 37 52 63 68 57 50 49
215 224 259 283 239 254 160 120 145 172 148 98 100 141 76 6 -48 16 12 21 45 56 54 81 90 89 91 88 89 58 67 65 57 57 55 57 53 37 41 45 49 55 50 51 62 67 62 57 54
203 228 268 342 263 196 119 115 103 59 68 63 67 69 55 59 46 38 -2 -4 12 30 49 74 87 106 93 77 75 74 61 64 74 75 67 73 76 68 64 58 54 59 62 62 67 68 64 62 59
155 196 226 226 178 97 81 87 72 70 78 54 57 73 53 37 13 -6 -19 -3 7 22 32 17 41 78 103 108 99 93 64 70 86 95 86 89 86 86 72 73 63 62 60 72 73 76 78 78 86
150 166 134 160 121 116 86 75 69 58 48 67 43 31 41 11 17 34 33 29 32 36 47 56 44 34 60 94 125 102 108 97 92 99 108 106 103 105 100 102 99 97 62 90 87 104 117 124 113
137 154 115 78 98 85 71 57 62 53 17 31 19 32 31 47 49 36 42 52 61 86 84 89 84 84 67 66 88 123 117 115 120 100 98 121 106 109 113 101 98 63 72 119 122 127 120 130 120
135 101 97 75 76 59 47 40 28 26 3 32 55 45 17 18 30 48 47 60 73 78 83 102 110 96 86 89 82 87 123 124 107 122 110 131 125 118 117 123 96 93 93 91 122 121 112 109 111
103 92 71 66 56 50 49 37 67 31 28 40 28 24 39 67 78 84 101 117 148 136 141 134 155 131 116 130 127 104 84 125 127 120 117 137 150 142 127 132 105 113 114 105 114 140 124 126 118
104 101 87 63 46 50 49 52 18 -23 19 27 45 107 109 86 161 202 192 120 81 72 89 99 112 130 124 112 110 138 111 95 124 106 105 132 149 134 141 136 141 167 145 116 89 74 90 109 132
121 115 99 63 57 59 73 62 39 5 33 32 66 102 123 145 125 155 155 136 107 77 85 87 85 82 97 106 110 104 129 140 118 136 104 114 135 121 132 163 148 137 139 128 108 83 74 71 94
158 112 88 92 49 66 64 52 36 64 65 38 79 102 117 154 150 114 85 69 64 73 93 102 99 87 97 101 99 111 107 114 144 131 150 90 138 154 150 152 129 113 121 116 102 97 88 70 72
109 110 115 90 50 54 55 42 12 35 86 71 145 181 177 137 108 63 52 59 60 72 89 70 70 70 71 69 83 77 90 123 110 153 119 126 113 105 140 182 167 125 118 107 101 75 84 102 99
125 124 105 100 50 38 44 33 62 84 88 161 210 213 156 115 82 82 72 68 77 74 94 99 68 64 32 65 92 115 101 127 103 119 106 89 135 78 130 186 178 218 177 130 109 96 94 104 112
137 125 123 80 62 40 56 57 96 69 99 160 190 171 163 133 97 73 56 71 85 99 97 81 64 46 43 50 81 91 104 95 129 91 76 107 172 292 255 294 276 241 167 134 114 98 73 81 93
135 133 103 88 101 92 72 24 64 95 87 105 149 193 168 141 109 42 57 48 70 87 90 80 97 69 53 38 40 68 40 13 51 46 77 123 161 216 228 220 170 131 108 106 122 105 100 89 96
136 138 102 86 62 35 43 6 46 76 70 80 178 181 146 125 60 28 48 47 62 73 83 90 87 80 61 30 -1 38 9 19 54 95 177 138 116 148 196 226 200 143 110 123 104 100 95 98 81
86 86 85 63 37 19 47 68 34 58 60 158 154 153 136 99 46 30 32 37 53 48 61 78 90 77 86 54 50 36 51 45 58 71 64 34 106 59 88 121 153 131 96 120 95 82 41 105 123
77 66 30 -1 14 37 31 65 17 39 62 194 191 165 114 82 46 45 46 38 33 37 44 51 98 67 65 46 81 70 65 78 72 75 82 122 124 124 145 146 150 128 82 103 113 117 63 -56 86
36 48 32 41 48 27 32 53 -3 43 93 141 135 91 54 53 7 14 18 36 12 19 26 42 71 58 45 59 80 96 105 80 53 55 47 91 123 95 123 125 155 155 149 141 121 77 91 105 57
20 25 40 23 41 2 57 12 3 40 86 110 86 48 40 42 19 18 25 20 20 15 17 26 42 79 106 104 100 73 77 89 99 109 110 129 105 101 112 129 183 217 163 147 100 46 22 50 38
11 11 30 16 -3 10 -1 7 17 33 24 92 80 59 48 49 39 28 2 -0 2 -2 13 20 38 53 52 37 39 57 66 57 58 70 70 54 62 100 161 152 94 84 60 48 36 23 10 10 2
7 21 11 13 5 -14 9 6 21 11 37 79 79 59 45 12 4 2 -76 -69 -12 17 33 34 11 14 27 32 31 19 9 10 11 17 17 25 18 26 29 26 23 36 35 38 36 51 33 36 22
5 9 -10 -11 -14 -8 1 10 26 27 36 33 36 34 10 -28 -31 -68 -64 -20 11 43 38 39 40 37 29 24 27 22 18 16 21 36 36 35 34 31 30 33 33 32 39 38 38 50 68 62 58
29 -1 -8 -11 -3 -0 -14 12 51 60 29 28 28 28 21 -15 -39 -62 -45 -2 25 49 45 47 41 41 33 32 33 35 35 36 38 37 37 37 36 37 36 40 47 52 58 52 62 64 82 83 75

GFSSGP_con_3kmhel_117.txt.gz
Helicity
141 120 104 141 144 141 123 122 133 157 141 106 63 71 119 180 146 86 8 26 50 58 56 41 28 34 35 42 38 33 35 34 28 42 37 28 36 32 29 29 30 24 16 -5 -2 33 41 41 52
133 106 146 150 164 172 138 160 188 178 125 81 102 80 116 127 133 116 82 49 15 28 50 66 8 30 39 43 49 35 37 35 32 33 32 30 35 35 28 25 21 15 9 -16 -0 41 57 40 52
127 128 173 173 179 170 153 173 205 209 140 96 102 128 107 112 119 105 67 63 59 55 50 101 50 40 47 48 50 53 41 37 37 35 32 28 30 27 27 22 20 14 10 4 18 31 51 44 37
156 201 203 208 198 229 207 210 211 188 184 163 102 157 117 112 99 95 79 98 98 102 90 85 112 61 50 54 49 56 53 49 39 30 27 27 28 29 27 31 27 21 14 24 39 46 53 44 36
210 229 271 265 262 264 291 245 190 192 171 179 125 121 128 128 109 86 84 73 84 96 102 93 118 131 105 57 39 45 54 52 47 40 47 44 33 28 27 35 37 33 25 27 36 47 46 41 39
312 265 298 277 295 321 306 265 214 221 186 173 170 149 111 97 102 105 92 83 71 74 80 92 117 139 126 118 92 59 49 54 54 53 48 44 44 38 37 36 35 37 31 28 33 49 54 47 40
270 311 263 277 290 314 286 222 218 208 181 177 99 137 111 118 86 72 66 60 59 58 72 81 89 107 120 111 115 101 81 49 42 42 48 50 49 49 46 43 40 31 27 27 33 40 50 54 38
210 263 308 328 282 278 233 201 165 177 166 118 97 100 97 68 53 66 63 56 24 37 55 85 104 103 110 114 124 132 131 106 77 65 58 56 56 55 56 51 50 49 44 40 40 46 53 55 51
209 285 300 266 239 209 197 181 157 129 147 144 116 89 73 49 48 59 42 27 19 29 43 73 105 131 123 111 107 117 125 146 127 102 90 84 82 77 76 68 60 58 52 54 50 50 56 64 67
258 269 230 245 224 184 192 163 136 122 147 145 117 90 58 49 29 29 23 16 18 49 63 61 76 88 115 139 139 128 115 108 110 112 106 94 82 72 69 69 57 56 52 50 51 53 58 84 118
258 227 187 222 192 186 176 160 119 112 111 92 84 46 30 29 40 50 53 34 30 33 64 86 72 76 83 102 107 123 137 133 114 107 113 111 104 95 87 84 85 88 77 93 91 94 104 129 140
243 251 207 174 190 168 148 126 122 80 64 61 46 40 43 56 75 80 82 78 81 62 61 83 87 72 80 74 83 99 108 133 148 146 125 118 116 118 108 107 95 92 106 115 121 137 132 138 146
220 200 221 174 160 137 113 104 71 46 18 40 29 53 64 80 88 95 82 80 75 91 90 96 87 79 85 79 77 81 98 109 125 155 168 155 126 111 109 103 108 109 100 102 111 121 128 124 138
155 177 162 155 128 120 92 79 73 55 58 54 62 84 95 103 81 84 103 97 94 83 80 67 69 68 67 71 78 72 79 86 94 110 144 174 174 154 122 101 103 109 107 102 109 122 143 128 138
218 204 158 144 103 96 67 62 51 50 82 86 89 98 119 114 105 105 89 80 66 59 53 66 67 73 70 73 69 70 78 87 87 91 96 121 157 169 163 140 108 90 112 111 102 103 133 123 141
212 189 151 123 100 92 86 87 86 49 71 79 76 95 118 119 121 120 103 72 54 43 50 54 67 65 76 84 78 78 85 85 88 95 102 114 143 165 163 151 130 92 103 138 145 132 130 116 123
227 159 151 135 94 85 88 74 73 81 68 66 45 113 135 149 140 128 100 72 55 47 40 38 74 92 94 73 61 88 104 94 114 119 117 112 112 135 161 163 145 135 113 122 156 150 134 127 129
134 140 155 124 87 83 74 40 35 42 61 38 51 113 158 143 132 110 92 71 48 31 27 46 83 102 87 82 82 90 101 112 155 128 130 145 128 143 139 124 129 71 139 108 130 143 159 157 164
108 126 126 118 84 84 62 40 36 24 46 62 77 130 183 163 140 105 80 53 43 46 58 58 79 71 58 90 94 108 62 62 103 138 169 149 122 93 71 94 135 120 40 152 143 153 173 215 210
163 144 147 113 80 84 86 56 61 52 69 85 141 169 178 183 140 115 79 45 29 38 39 57 62 66 69 93 101 47 43 37 76 74 71 112 128 97 84 100 91 164 118 102 182 303 242 239 237
190 127 121 103 101 78 94 83 101 104 120 147 141 148 167 145 127 102 81 45 53 55 40 49 62 62 92 99 100 52 68 62 76 77 72 83 116 122 124 119 118 107 101 95 91 -0 24 122 149
153 117 115 122 125 101 103 64 75 105 119 114 121 120 126 122 124 114 84 85 63 41 40 51 81 106 101 102 105 83 64 79 53 65 57 55 85 121 131 114 113 117 102 121 85 24 -54 -10 9
108 93 118 114 113 110 106 93 27 92 77 46 59 87 107 121 108 82 70 59 32 41 61 79 79 94 81 68 78 88 59 60 67 61 63 46 82 56 66 106 131 113 99 58 89 84 80 102 130
78 114 137 107 95 58 70 89 48 63 57 55 73 114 128 118 107 82 83 40 34 52 63 62 72 60 37 37 58 57 54 58 75 80 70 67 46 55 71 58 41 58 72 85 74 129 132 137 118
106 116 43 3 48 29 83 87 34 42 35 46 46 88 105 109 108 88 65 57 30 48 55 57 40 29 -8 -7 1 9 25 32 46 53 50 62 64 64 62 54 56 45 35 52 71 79 99 102 106
91 81 41 21 54 65 67 59 45 50 53 63 56 63 80 75 71 70 50 18 5 8 28 37 33 21 13 13 6 15 38 36 38 42 42 32 23 23 34 26 20 25 30 34 38 49 78 103 97
44 50 35 50 32 55 53 5 -1 29 35 43 22 34 51 64 75 53 15 -22 -21 -3 12 25 17 13 10 14 13 31 44 57 50 53 48 43 41 41 38 26 23 23 30 36 40 31 48 45 49
26 24 39 53 54 35 3 -10 -2 32 2 -11 -13 45 51 50 46 32 1 -14 -16 -7 19 32 28 25 21 19 16 28 35 48 59 72 78 69 60 56 54 55 57 61 68 73 83 86 94 109 118
21 14 29 29 24 -23 -48 -22 -23 13 54 43 14 26 37 48 49 42 15 5 4 22 37 37 34 34 30 23 26 39 50 63 66 65 56 52 48 48 53 55 61 65 67 71 77 72 76 78 81
-18 1 23 21 -9 -23 -44 -2 40 50 58 46 -7 24 46 55 56 54 43 38 29 24 23 23 33 38 35 40 50 60 70 69 72 71 64 63 63 61 68 83 90 93 92 89 88 93 89 96 97

GFSSGP_con_3kmhel_120.txt.gz
Helicity
119 110 103 135 140 129 108 87 91 111 108 93 88 113 118 140 98 52 17 37 61 88 97 73 13 21 33 41 52 43 31 31 35 45 39 37 41 38 31 26 21 12 4 -10 5 20 19 28 43
126 117 150 143 159 147 110 113 109 119 78 77 134 132 153 152 161 136 109 44 10 50 87 130 18 25 31 39 52 53 45 40 29 31 39 40 37 35 32 31 27 18 7 -6 2 27 49 36 37
133 146 171 170 161 125 113 130 150 171 90 107 100 120 109 115 125 116 95 81 67 76 76 101 122 64 51 44 42 48 55 51 39 38 34 32 28 26 30 28 21 16 9 5 10 34 50 39 37
170 209 202 198 157 177 148 163 195 193 163 139 109 152 114 119 114 106 90 98 97 113 102 94 125 121 94 87 56 46 47 53 47 43 37 35 32 30 28 28 26 22 17 10 17 46 67 59 42
215 226 254 225 214 195 216 205 186 196 174 167 122 113 127 129 108 112 97 92 104 101 96 95 124 144 139 132 133 91 69 56 48 47 39 41 37 36 36 39 34 34 26 24 30 37 52 55 42
283 249 255 221 233 245 239 207 198 211 187 163 158 151 113 91 86 101 93 93 87 96 92 86 113 138 141 138 124 110 115 99 70 53 45 46 46 39 36 42 39 37 31 33 33 33 42 45 41
241 279 213 230 230 258 245 215 222 215 204 185 103 147 94 90 89 90 81 70 77 90 96 98 95 106 123 128 115 117 112 115 97 88 75 62 51 44 43 44 44 40 36 37 39 40 45 45 42
218 255 248 261 229 238 225 206 203 206 189 112 103 93 106 83 82 81 79 95 75 61 75 101 105 106 113 108 130 136 139 133 133 116 101 95 83 69 62 59 55 47 40 42 47 47 45 52 58
204 279 258 222 225 213 199 200 185 150 144 130 118 93 80 77 81 92 94 79 61 55 52 63 81 92 100 94 110 123 132 144 142 133 132 118 99 95 89 81 66 60 54 46 43 44 46 53 63
250 265 215 212 203 188 195 175 167 149 152 153 146 120 89 101 86 73 51 40 37 51 46 55 64 78 93 94 102 101 106 99 105 113 113 108 106 97 90 86 85 78 63 53 45 43 41 63 120
240 214 179 225 202 201 185 173 133 132 129 104 102 84 73 60 53 48 41 32 27 27 43 60 55 48 56 80 88 89 103 104 116 122 116 111 106 109 104 98 93 95 87 85 79 84 92 110 135
235 251 216 202 218 198 185 140 138 124 102 97 72 50 47 48 49 33 36 39 45 44 50 62 62 57 68 70 75 84 89 102 110 129 139 135 128 105 109 112 104 102 97 89 95 102 102 115 143
247 226 254 234 216 208 157 161 126 94 50 63 60 60 50 52 49 53 45 50 60 77 72 69 54 61 72 71 73 83 98 102 104 108 125 137 143 142 143 123 110 111 103 101 96 103 100 98 123
218 228 231 240 206 181 152 137 114 73 44 28 52 70 67 68 65 73 93 89 76 58 56 52 57 62 64 73 78 77 86 93 109 116 109 116 133 142 158 160 144 114 111 102 95 96 93 82 93
251 272 247 236 187 141 121 101 68 51 68 87 81 75 91 94 104 99 84 78 66 59 63 66 64 63 65 60 62 65 77 89 95 101 111 111 123 127 120 123 144 156 134 114 109 100 106 107 75
233 222 191 159 143 115 107 85 65 49 67 75 66 76 93 102 105 96 82 65 52 56 62 50 49 54 67 66 66 78 91 94 97 99 99 113 118 124 132 139 127 114 109 93 98 109 107 123 121
268 158 139 125 99 96 85 77 67 70 71 62 68 68 90 112 112 105 101 85 74 58 33 25 40 68 85 83 68 91 101 104 103 99 118 158 161 161 148 136 127 123 128 116 63 86 86 111 115
149 146 136 105 93 66 59 43 48 56 57 35 72 68 91 104 109 122 127 102 78 49 31 35 56 71 75 63 70 59 109 134 95 61 86 117 123 149 139 126 117 103 92 99 105 78 88 82 106
114 121 127 104 80 67 38 20 30 28 50 42 54 92 117 146 159 144 122 96 67 43 40 51 55 60 69 84 77 81 89 79 78 81 99 92 108 123 108 92 111 125 92 106 67 30 76 49 165
141 140 147 112 79 67 60 36 50 46 58 94 91 117 165 230 179 133 105 88 67 52 57 52 52 63 63 42 27 49 70 49 67 71 93 112 105 112 90 113 92 114 125 145 156 122 26 46 70
165 115 108 97 96 74 70 50 82 96 99 114 114 134 189 186 146 122 106 100 76 59 63 57 60 75 70 65 83 83 71 76 86 100 92 98 96 104 81 89 84 90 104 96 91 122 96 71 -10
139 103 94 112 113 101 107 76 84 103 96 122 153 141 129 121 133 130 107 78 60 69 54 55 70 78 81 103 120 107 104 96 80 70 54 84 103 112 125 64 63 71 82 89 71 27 53 55 34
96 92 102 100 102 102 97 95 37 107 86 94 86 58 68 100 112 96 82 68 85 71 58 65 78 91 100 98 76 76 62 38 47 46 70 97 88 83 97 78 59 49 37 78 95 51 84 54 38
72 107 121 100 93 98 108 115 28 58 69 94 58 50 77 86 80 82 77 82 84 67 68 78 83 76 67 47 31 30 38 26 24 33 36 42 42 60 77 74 64 64 69 52 50 50 55 1 20
108 127 136 106 115 35 85 80 53 52 47 57 50 34 77 91 89 74 67 67 71 46 42 36 45 51 50 44 37 28 19 20 26 24 29 37 33 36 47 47 46 54 65 78 82 74 66 62 55
108 90 83 -5 -23 -8 87 32 31 44 61 55 56 41 57 77 79 74 57 55 25 10 18 31 45 50 45 39 27 23 23 21 31 37 38 41 38 33 34 36 43 49 57 69 83 84 78 82 85
79 88 84 58 54 40 57 37 15 17 18 41 39 45 38 51 66 61 50 28 3 7 20 44 51 43 33 34 34 31 25 32 38 35 39 43 44 45 46 38 39 45 52 57 54 52 56 67 82
61 36 67 63 65 41 46 39 19 40 58 32 -7 -3 19 46 57 54 43 11 0 8 26 49 48 40 42 44 42 42 36 42 43 49 57 57 52 47 42 44 51 62 72 76 84 79 74 88 81
32 26 48 50 58 23 -15 -8 -33 -15 38 36 18 -4 11 41 53 54 42 22 16 25 44 50 54 55 45 47 50 57 56 59 61 67 69 67 58 50 50 52 63 75 84 93 102 103 100 102 97
23 21 42 30 0 32 5 25 -7 -4 38 38 18 -20 2 40 47 61 62 65 53 44 61 62 56 54 59 60 65 63 72 75 76 75 70 71 71 66 72 80 87 93 96 93 93 90 89 88 97

GFSSGP_con_3kmhel_123.txt.gz
Helicity
91 96 99 134 126 103 84 65 90 95 105 88 89 70 91 107 61 58 32 46 68 83 104 93 3 32 26 37 39 44 46 42 42 47 40 42 38 34 28 25 12 2 1 5 4 10 7 12 34
102 116 152 144 136 116 92 86 84 103 97 128 157 133 143 130 113 98 89 72 38 53 66 91 98 51 42 43 48 45 45 45 45 48 50 48 43 42 34 26 19 11 9 -0 6 22 35 38 34
130 157 184 169 131 106 92 94 100 121 100 131 128 148 138 132 128 116 104 91 77 93 82 95 127 130 99 86 67 61 53 49 45 43 42 41 38 33 35 30 26 19 18 10 12 24 61 50 38
185 217 204 188 148 148 117 131 144 150 130 127 126 176 121 101 100 104 86 95 96 104 97 95 122 139 121 118 123 109 78 61 53 42 37 37 34 33 30 29 30 23 21 24 23 45 56 64 49
232 236 247 215 181 163 163 165 156 153 139 139 114 113 111 96 100 99 101 104 113 101 104 107 126 136 145 145 130 125 114 102 82 64 54 50 30 34 32 34 34 31 26 23 26 42 58 73 66
278 248 255 209 192 191 177 150 154 170 157 147 145 144 104 84 80 108 106 108 100 103 97 104 120 135 139 147 135 115 102 107 106 86 77 77 61 50 42 39 35 34 29 28 26 32 44 55 59
244 280 213 202 191 198 165 157 159 183 184 171 114 148 105 88 87 101 106 100 104 105 108 106 109 127 140 132 134 130 129 124 118 113 100 97 88 75 65 58 52 40 34 32 33 32 33 45 50
205 243 239 217 178 179 166 202 197 189 191 139 121 107 95 72 98 111 119 102 92 95 98 102 94 99 110 109 142 136 122 130 138 134 126 115 97 87 80 78 71 68 61 49 41 38 35 36 38
200 250 228 182 177 176 181 213 208 176 172 151 128 108 112 120 102 106 105 101 75 69 60 61 69 75 84 81 98 104 114 121 126 125 134 130 123 117 106 100 90 87 82 76 64 53 46 46 44
260 230 160 162 163 162 186 194 178 162 164 172 152 138 139 131 119 114 93 75 54 45 38 46 56 70 77 76 90 94 101 101 109 116 121 121 121 123 111 97 91 85 83 81 73 65 58 58 58
278 219 177 198 177 178 188 203 159 156 145 99 89 97 107 114 100 72 51 37 33 33 46 60 58 62 75 80 84 81 88 95 109 131 133 127 127 125 130 122 112 109 99 91 85 78 69 61 67
261 249 216 199 202 197 194 166 180 159 116 114 112 85 76 69 58 47 46 46 55 67 71 69 64 68 73 65 71 80 91 101 103 115 129 127 131 135 138 142 143 131 121 111 88 91 82 68 64
241 219 244 227 223 235 180 188 144 129 89 131 110 80 58 54 47 46 41 43 49 62 62 62 53 69 79 77 81 85 91 93 95 98 104 106 108 116 119 124 124 118 112 107 110 100 95 93 79
210 230 239 260 239 223 172 151 140 97 72 81 78 60 53 58 53 54 55 57 66 65 73 71 74 77 77 76 79 75 77 86 88 100 111 118 115 116 118 120 131 138 131 113 88 103 99 101 101
255 297 262 291 228 188 158 140 97 84 74 74 69 65 69 73 72 74 77 86 83 72 75 84 78 80 76 74 73 74 80 89 92 95 117 133 123 120 118 117 125 140 147 137 140 118 81 83 70
258 252 231 225 194 173 151 123 106 66 57 61 65 74 79 71 79 90 92 86 78 76 83 71 58 66 80 84 88 87 78 55 41 74 101 140 130 120 115 120 133 150 155 148 140 135 108 81 74
309 204 210 177 150 128 133 103 72 48 28 33 51 64 75 80 89 98 96 82 81 79 76 56 49 72 98 98 85 54 66 64 77 80 95 98 83 104 79 79 92 121 140 155 136 128 103 70 70
195 171 166 126 114 91 76 32 40 27 26 12 39 69 76 79 77 102 101 104 100 79 48 25 35 65 84 64 57 66 89 103 98 91 88 97 93 91 91 68 85 107 154 173 145 127 92 71 52
162 142 148 115 90 66 24 -7 8 17 44 23 48 75 102 84 116 136 134 122 104 82 62 55 61 77 74 67 71 76 94 104 94 90 96 78 74 80 74 75 95 93 118 139 152 88 94 87 106
196 152 150 86 70 61 39 3 31 28 45 89 72 75 106 162 179 162 135 131 111 89 75 60 59 67 56 55 49 55 64 67 80 78 75 79 78 87 83 75 82 73 90 115 107 110 73 90 92
238 128 105 81 76 48 42 20 54 72 81 87 91 93 129 180 193 154 131 122 117 89 66 51 48 53 59 61 59 50 39 57 68 77 72 70 85 87 93 99 84 89 73 71 75 97 114 55 76
159 122 79 81 81 91 81 82 69 75 57 88 112 126 113 126 133 127 123 104 93 71 56 51 54 62 78 82 70 81 69 74 65 56 55 66 74 77 78 96 104 102 92 101 112 115 73 13 30
85 80 85 79 79 76 89 76 38 70 66 76 109 94 74 74 99 95 90 90 90 77 64 52 54 68 68 57 49 58 73 43 30 30 25 42 59 55 51 53 55 57 58 73 106 99 107 63 -21
42 92 103 86 79 99 83 82 32 41 56 104 83 44 50 63 68 81 86 99 76 73 56 44 46 43 32 31 46 60 55 41 35 33 32 31 26 32 47 51 54 59 61 64 52 42 46 36 17
90 108 141 125 116 57 63 62 34 55 39 49 67 38 36 63 86 86 87 81 65 63 47 33 23 18 32 44 52 51 48 43 44 38 33 42 40 33 41 40 39 39 45 54 63 68 65 55 54
97 84 89 55 59 43 58 -6 29 20 41 21 26 35 33 52 72 80 79 77 71 46 29 27 31 34 41 42 44 41 42 44 46 41 38 40 37 29 18 25 32 39 44 57 70 76 83 88 84
89 104 65 69 60 23 40 29 20 28 3 24 22 36 26 37 58 74 75 72 54 29 26 47 51 45 42 35 42 40 42 50 52 51 48 45 35 33 36 35 37 40 52 63 71 78 86 87 90
86 46 81 92 53 61 49 47 34 34 27 12 22 14 3 19 43 53 51 55 45 35 47 67 67 58 54 54 52 51 54 58 57 53 57 54 49 44 46 50 55 65 73 77 79 81 80 76 74
88 79 89 60 51 58 56 34 2 -0 12 34 39 27 10 18 42 49 56 66 63 72 83 82 75 67 61 64 61 63 65 68 64 61 59 54 51 55 62 59 61 70 75 77 75 80 81 80 79
39 35 45 58 33 46 34 14 -8 -42 -29 31 37 35 25 22 18 52 78 92 106 110 107 96 84 82 75 78 86 80 76 82 75 68 60 59 59 58 58 59 66 74 77 84 91 99 100 89 82

GFSSGP_con_3kmhel_126.txt.gz
Helicity
97 103 94 107 99 79 51 52 74 72 73 80 100 81 69 103 39 49 36 53 60 40 42 61 73 49 42 50 55 44 41 41 39 42 42 39 38 34 30 26 22 16 3 8 0 2 9 8 25
103 116 133 130 121 64 62 65 69 82 84 105 120 74 95 70 86 81 60 78 59 52 44 75 114 69 70 75 69 63 56 47 43 40 48 40 39 34 32 25 21 16 11 10 9 8 30 39 36
108 150 182 153 137 84 72 68 98 114 126 102 97 121 103 94 110 100 99 82 69 62 67 81 112 133 105 95 101 95 79 63 55 45 36 36 31 27 22 20 19 14 10 8 4 9 46 60 63
156 162 152 173 114 125 113 100 97 115 129 118 104 123 106 108 100 121 107 91 70 72 81 91 115 135 135 121 112 115 113 88 69 61 59 49 34 27 22 23 21 24 16 11 10 10 53 61 63
182 201 204 179 138 137 124 125 102 118 105 109 117 107 114 116 135 130 107 89 91 89 88 85 118 129 138 152 148 133 111 105 89 74 67 63 61 51 47 43 39 35 25 25 26 28 34 52 62
235 249 201 163 160 145 129 132 119 108 99 110 113 119 106 108 122 120 97 97 93 94 93 92 95 113 112 129 138 134 114 100 105 106 91 88 84 74 60 56 52 47 37 30 34 29 30 34 46
267 279 220 171 163 151 135 129 112 105 106 133 108 127 112 107 122 115 94 90 94 89 82 82 86 92 89 95 122 118 113 118 125 123 121 111 87 75 68 68 67 59 53 47 47 42 37 37 33
236 271 213 212 138 161 136 150 140 120 142 128 115 108 104 113 108 99 103 110 93 85 78 74 66 67 69 66 77 80 87 96 102 113 123 110 85 86 69 75 68 90 79 72 70 62 52 48 45
226 255 214 196 146 148 133 153 155 146 133 140 131 128 142 138 112 95 87 79 68 72 71 68 72 72 71 66 67 67 73 68 69 86 96 88 97 106 121 142 117 103 96 90 84 77 72 69 64
261 257 203 191 161 105 131 123 146 130 125 146 139 133 144 135 105 97 91 83 72 57 45 54 61 71 76 74 81 83 84 87 90 96 100 106 113 121 104 98 115 108 106 89 75 74 76 77 73
258 250 183 186 167 100 165 159 150 125 119 97 92 114 128 126 113 99 89 68 44 37 46 57 61 63 70 71 69 72 78 82 86 95 96 90 91 100 105 111 110 117 115 109 115 90 87 101 107
273 256 224 182 176 168 166 164 164 143 138 114 112 109 107 107 101 76 58 52 51 55 60 60 56 58 65 61 69 75 83 90 93 97 99 97 96 99 105 110 119 111 112 115 107 104 89 79 77
246 247 252 208 180 210 176 195 159 136 113 127 131 108 101 91 75 64 58 59 62 63 62 61 58 63 67 72 79 80 82 85 90 96 100 97 96 102 98 103 109 117 125 126 134 133 125 114 92
192 203 219 239 218 215 167 165 143 114 99 111 96 86 68 50 46 54 51 57 59 56 58 62 60 61 62 69 77 78 80 84 90 98 110 106 98 101 102 106 108 107 120 129 131 145 147 139 118
172 246 219 258 224 186 171 155 133 107 74 81 70 58 49 45 49 56 75 75 71 66 64 74 70 70 74 76 78 74 79 76 79 86 87 89 98 101 93 81 86 87 86 75 95 102 144 162 143
233 196 234 210 213 171 166 113 114 100 80 63 54 39 38 47 59 76 79 81 84 81 81 79 72 65 67 70 77 79 80 71 57 57 62 84 76 67 51 56 52 54 65 71 77 93 114 159 168
278 228 229 188 187 180 150 128 97 83 77 59 34 37 41 54 69 72 87 101 96 90 88 90 70 56 67 69 71 71 65 62 65 72 86 89 69 65 48 31 27 28 43 67 74 80 102 145 155
200 216 226 172 157 140 125 97 75 48 20 6 7 30 53 71 70 90 101 105 99 100 99 80 45 34 48 66 59 49 68 77 90 109 96 79 70 65 50 36 46 62 75 61 61 55 84 132 126
156 128 171 171 148 123 73 49 20 0 -15 -21 7 35 53 74 101 115 113 114 112 106 83 57 36 48 70 72 58 60 76 93 104 82 93 89 86 83 59 47 55 61 54 51 66 75 77 122 111
146 107 183 131 111 103 41 22 -6 -38 -30 -2 14 35 54 81 118 121 127 131 128 106 79 65 56 69 73 49 33 44 67 81 70 79 76 80 77 68 63 61 57 66 49 51 55 71 85 111 103
243 148 140 109 71 43 45 9 1 15 33 46 43 48 64 78 105 136 144 122 113 100 81 57 51 63 53 43 45 58 58 53 60 64 62 71 70 67 61 60 50 41 40 41 56 66 76 72 97
186 164 116 99 83 97 86 82 42 41 33 40 55 56 64 94 102 113 107 103 83 76 67 59 58 51 53 62 66 60 47 40 46 46 47 51 57 53 38 35 36 29 20 22 26 34 49 53 60
122 106 102 102 95 74 73 75 52 47 30 39 52 98 105 87 68 71 74 77 83 82 71 58 47 42 43 41 38 40 46 46 48 53 52 48 43 38 38 36 35 32 20 23 27 25 31 34 41
54 89 101 92 85 100 83 88 59 46 65 83 96 60 53 50 53 53 73 82 78 79 64 55 49 35 28 34 47 48 44 48 52 61 58 51 40 34 39 38 39 34 28 31 29 34 49 50 51
104 105 155 137 128 120 60 53 17 44 51 58 73 64 34 35 41 55 69 77 79 78 79 67 44 29 31 33 44 47 49 53 59 62 59 51 49 46 49 45 39 30 32 38 50 60 64 62 65
100 109 145 132 115 95 57 32 46 54 26 21 14 28 29 24 38 53 71 82 86 86 81 60 42 34 39 37 41 49 56 58 62 62 55 57 52 49 42 38 34 35 38 46 58 65 74 80 85
75 84 74 68 56 52 42 32 20 15 3 5 28 32 34 31 36 43 70 85 78 84 82 71 58 49 43 37 44 55 63 62 59 60 61 57 57 50 39 33 34 36 40 54 65 74 83 87 93
89 50 67 60 22 25 40 69 54 59 59 34 30 33 23 17 26 48 57 66 77 82 87 87 72 55 51 56 67 75 72 66 64 64 58 55 54 47 45 43 43 45 49 54 58 64 70 77 90
57 62 76 71 65 64 80 72 24 24 39 62 52 46 35 17 14 31 43 56 78 91 101 102 94 74 64 74 84 86 88 84 76 69 72 67 66 64 62 60 55 54 54 58 59 64 67 77 90
70 65 61 64 50 48 53 44 37 11 -5 25 46 28 11 26 30 39 51 58 84 90 96 109 114 104 86 94 99 93 90 87 86 84 81 83 75 77 70 67 62 60 60 59 59 62 69 73 84

GFSSGP_con_3kmhel_129.txt.gz
Helicity
98 93 111 118 116 86 46 37 64 60 53 108 158 112 98 137 66 39 39 37 38 38 60 78 105 51 57 54 54 54 47 38 30 26 27 33 33 30 26 21 16 6 -2 -1 -7 9 15 17 29
81 101 140 159 150 52 55 53 38 55 72 119 124 88 74 63 84 53 49 71 60 49 37 94 127 102 73 78 81 79 59 50 46 45 33 29 34 30 26 22 19 15 5 -0 -4 2 8 24 37
146 161 168 153 141 58 65 40 115 102 79 77 89 153 103 65 95 75 64 64 65 62 45 91 113 121 113 105 89 89 93 76 69 63 54 53 42 36 28 26 27 21 17 10 5 1 5 33 46
136 153 171 188 104 148 125 89 84 100 109 95 83 85 90 164 88 98 90 93 92 85 68 87 96 106 124 127 121 117 112 102 85 73 66 59 54 44 37 37 37 31 31 27 24 16 12 35 39
226 193 174 143 126 102 112 101 71 70 81 83 84 83 90 110 112 118 114 111 106 94 83 71 93 102 104 123 131 125 133 114 100 89 81 69 58 57 53 52 51 45 38 35 36 32 31 37 46
223 237 175 135 115 111 114 81 66 89 91 98 104 106 104 106 110 111 103 105 103 95 85 78 54 65 69 86 103 109 108 98 88 82 82 77 67 61 56 58 57 56 52 49 47 42 41 41 36
277 216 162 105 105 111 110 94 80 100 93 108 101 89 89 111 118 109 99 91 87 89 85 75 67 62 37 41 75 81 83 86 82 85 88 83 70 59 59 58 60 65 69 68 64 56 48 48 49
300 248 235 159 98 150 111 123 133 94 206 143 142 73 69 121 115 114 101 88 86 87 76 68 63 59 58 53 52 41 44 52 52 57 63 69 55 35 63 68 98 97 90 81 77 68 67 65 63
220 272 184 180 92 117 98 150 168 198 110 151 158 182 164 135 108 107 107 107 90 69 72 67 66 60 56 50 52 41 41 50 42 50 60 69 75 87 70 110 102 96 79 79 77 72 68 73 70
245 218 147 196 213 88 75 95 120 131 111 127 138 134 119 98 93 94 87 90 90 86 75 68 63 68 70 66 72 71 74 79 81 83 83 83 97 90 82 62 62 57 58 61 42 42 54 69 68
236 210 207 189 187 88 93 118 118 106 97 88 94 111 97 103 104 96 100 96 87 65 55 57 61 61 65 61 57 64 69 78 80 91 84 82 79 82 82 84 84 79 75 66 96 93 75 69 93
276 284 224 160 216 119 117 122 149 114 199 135 129 97 97 101 97 94 90 79 65 53 52 53 57 55 55 46 54 58 66 75 87 87 87 86 83 83 76 83 88 86 87 88 88 91 82 94 121
228 213 202 164 174 196 181 158 151 151 136 134 133 109 99 101 108 97 81 63 58 58 57 58 54 47 42 43 55 61 76 88 92 99 99 88 78 82 77 83 89 86 83 80 90 92 88 78 84
136 155 173 197 185 187 160 166 174 109 103 115 104 103 108 94 83 77 49 62 64 62 62 54 47 48 42 43 61 76 87 91 90 97 97 106 97 94 95 93 96 86 77 78 74 63 65 62 86
106 180 165 201 220 209 187 170 150 85 92 93 85 90 92 81 69 46 83 69 70 65 54 53 47 46 47 54 69 71 85 90 94 78 86 76 73 78 70 56 49 50 60 49 61 68 75 64 70
198 160 213 194 209 190 194 117 122 82 68 65 64 70 68 52 47 77 71 73 77 70 67 66 70 75 75 66 61 72 82 89 60 67 57 63 71 75 54 43 63 65 55 55 54 43 37 39 51
170 218 196 201 200 184 144 191 99 81 63 48 50 49 36 30 46 66 80 93 88 92 85 85 93 88 67 54 59 73 101 62 59 73 84 92 93 84 79 64 61 53 41 45 42 44 53 60 51
216 178 184 176 151 168 126 170 78 74 66 50 37 19 11 21 48 67 90 98 99 96 94 103 93 70 54 59 66 66 116 70 59 92 106 90 100 95 72 51 37 43 43 61 73 65 67 59 49
102 113 130 163 154 149 108 109 71 53 47 29 4 -0 14 32 62 97 107 106 105 107 117 103 83 70 61 73 81 78 60 53 76 91 91 105 93 84 80 65 53 59 60 64 63 61 52 51 41
93 96 115 120 134 140 85 68 41 20 8 -1 -9 3 26 60 97 129 107 115 117 124 101 81 74 49 57 73 68 48 50 62 71 80 88 85 86 91 86 73 60 55 42 46 49 48 42 46 37
170 92 82 109 101 103 93 60 29 1 -8 13 20 26 47 75 91 100 107 110 113 96 84 72 58 47 64 62 51 48 63 58 63 73 66 71 74 81 83 70 64 68 51 46 42 38 41 37 47
183 218 125 97 87 105 95 115 33 8 24 42 37 43 60 70 79 96 124 103 88 74 87 69 60 62 68 71 68 73 68 67 73 58 46 42 57 68 73 80 78 58 45 47 35 25 24 30 42
169 148 131 126 117 97 81 89 58 49 24 19 30 44 59 87 87 75 88 63 64 87 74 68 67 67 68 55 51 48 56 64 52 49 45 53 62 79 90 83 68 56 39 33 27 27 36 39 53
104 105 112 104 105 103 93 84 78 57 80 60 71 82 98 88 72 57 57 61 67 75 76 66 70 63 61 57 58 64 64 63 55 58 58 62 67 71 80 68 59 53 47 46 39 38 48 52 66
151 118 160 134 135 123 72 80 47 33 57 82 95 90 61 52 43 47 50 57 57 72 72 68 64 55 56 59 62 67 63 60 64 69 75 67 59 64 71 68 65 64 60 55 52 53 54 63 72
126 148 169 148 122 103 56 69 61 65 72 53 55 56 51 33 30 31 36 48 66 65 63 61 58 62 71 70 71 76 75 73 73 67 59 53 53 66 77 78 76 75 68 62 56 52 60 62 73
94 103 97 111 96 115 56 38 43 49 32 46 63 58 47 39 33 23 31 53 54 56 59 68 72 70 70 82 90 82 81 79 72 65 61 61 66 66 70 70 71 71 68 68 63 61 65 68 81
126 66 91 84 109 93 42 44 69 67 68 68 65 60 65 54 35 23 30 48 50 53 70 82 86 85 93 97 98 99 100 95 81 79 78 80 78 75 70 72 74 74 69 63 63 62 66 71 82
69 63 63 79 65 79 68 85 70 60 75 95 84 76 62 44 28 21 40 41 46 59 73 88 106 114 117 116 121 124 120 118 110 100 92 89 83 86 76 76 78 75 76 73 70 66 62 63 67
85 67 40 76 46 62 81 68 60 81 77 88 76 45 25 8 3 12 37 70 92 86 103 119 118 120 117 132 139 131 131 136 125 115 105 106 105 101 101 93 85 81 80 81 77 73 71 66 64

GFSSGP_con_3kmhel_132.txt.gz
Helicity
130 151 157 134 141 88 96 109 64 127 157 190 194 113 164 143 92 48 34 42 64 59 84 107 122 83 59 63 60 51 47 39 30 27 34 34 32 29 28 22 18 12 -0 -11 -7 9 9 18 24
189 156 157 183 141 99 76 97 83 99 107 170 238 111 145 110 57 12 37 66 98 57 79 96 107 102 91 78 74 69 69 63 56 54 48 53 36 32 30 28 24 20 12 4 2 6 13 11 26
186 194 211 161 147 89 112 66 191 153 85 110 153 217 113 63 108 69 47 77 87 32 70 91 104 108 115 112 106 99 83 80 72 67 61 58 47 37 26 30 22 24 23 21 16 13 14 12 32
164 203 229 186 148 152 108 159 221 140 149 116 117 104 99 134 69 89 110 122 125 60 60 83 91 101 106 107 104 95 96 95 78 70 66 60 54 50 44 43 43 37 33 27 26 26 27 31 42
245 242 239 163 162 126 113 145 115 81 78 65 77 93 87 100 128 143 150 188 120 91 56 40 71 78 82 84 92 91 87 87 82 77 67 61 48 46 49 49 48 45 45 41 37 33 33 45 40
226 296 223 183 159 166 207 91 31 78 101 148 128 109 74 78 111 116 106 122 113 98 78 78 52 60 62 66 73 77 79 77 69 67 70 70 60 48 45 43 46 56 52 51 49 45 42 44 45
272 260 251 155 187 136 147 101 68 101 103 103 47 92 73 107 102 97 94 93 93 89 89 82 72 68 46 53 52 54 51 48 48 50 50 54 50 41 45 50 64 63 64 62 62 55 55 58 57
242 258 277 201 181 93 121 157 136 88 215 231 190 53 62 118 100 99 96 84 81 89 90 74 74 65 58 45 43 42 26 37 30 29 38 51 56 40 32 57 97 77 72 62 49 42 37 51 57
288 285 269 215 170 154 105 184 258 199 181 186 194 185 191 146 101 107 100 94 93 73 73 66 66 59 57 51 51 59 41 57 57 38 67 72 103 108 105 96 62 60 52 53 51 45 45 44 47
306 283 248 312 352 129 95 125 164 148 142 145 184 173 149 97 89 93 85 109 115 103 79 67 53 51 56 51 54 57 58 60 67 69 69 74 91 80 82 74 79 63 65 45 35 45 49 66 94
278 324 230 315 302 138 80 113 102 137 108 77 101 112 92 73 82 104 152 139 112 92 73 53 49 49 54 52 54 59 68 57 76 84 79 86 97 94 87 95 101 84 65 87 78 72 84 74 91
325 306 349 309 308 123 128 209 142 173 222 117 124 97 87 98 102 109 111 104 94 78 52 49 49 46 45 42 43 51 70 78 89 104 119 113 111 86 84 91 92 95 95 86 85 94 85 88 91
285 257 277 267 329 301 193 214 197 216 214 187 141 117 95 101 136 158 147 112 69 59 47 38 43 42 31 26 36 55 86 108 106 87 92 106 111 112 80 85 95 100 105 98 78 75 69 57 54
157 200 200 212 238 242 198 202 222 150 201 194 144 101 111 129 142 127 82 68 66 68 65 58 51 41 23 21 42 56 80 96 106 78 96 95 101 77 74 88 96 89 85 83 81 76 72 74 56
108 211 154 182 176 199 203 181 174 134 141 130 101 97 125 109 106 84 90 123 97 71 52 58 40 42 37 36 50 58 87 96 91 68 80 79 93 94 97 136 116 91 128 88 66 75 89 77 62
184 191 229 173 178 183 210 164 148 94 96 96 81 98 112 102 111 111 107 86 75 63 68 63 58 51 66 59 61 71 113 83 124 85 63 86 89 106 85 78 86 87 126 59 81 89 82 51 48
218 258 249 215 203 176 167 187 146 97 90 87 81 92 100 87 89 99 80 97 85 94 93 85 74 84 82 68 58 73 129 97 97 87 88 115 121 110 82 83 81 69 97 69 69 66 71 43 46
274 250 231 211 149 175 156 211 87 86 87 71 60 78 96 75 83 83 104 117 109 106 113 92 95 100 77 56 65 131 115 93 66 69 91 109 87 111 92 72 68 68 74 70 66 62 80 43 47
127 174 208 226 171 162 137 134 70 71 65 63 56 74 86 82 63 122 146 149 119 108 105 111 105 95 71 73 86 117 83 68 57 68 97 100 94 107 85 87 78 78 63 54 67 66 70 52 62
127 148 231 170 134 154 91 82 68 64 83 72 53 27 48 86 124 173 186 152 130 102 127 106 93 72 67 75 86 89 77 50 55 78 89 94 89 99 88 85 74 66 53 64 76 96 84 51 53
180 133 152 119 124 135 112 80 69 69 79 113 82 54 49 86 152 204 200 160 132 129 111 88 82 66 71 72 65 64 69 38 63 88 72 80 84 79 69 62 60 64 70 74 78 69 72 62 44
250 248 117 96 148 153 91 101 59 74 75 81 88 98 95 128 170 155 194 186 159 118 116 107 76 62 68 75 76 83 87 104 94 82 70 68 68 61 63 66 63 65 67 87 84 80 70 62 59
187 181 112 98 160 127 90 83 70 112 66 47 42 40 49 73 104 124 145 182 135 121 132 80 79 79 83 84 86 96 99 95 86 73 68 61 61 61 66 67 76 89 87 86 83 69 63 54 51
132 140 174 172 146 137 124 97 110 94 91 100 74 85 134 130 120 105 112 116 108 134 117 93 82 80 95 85 86 91 107 105 90 83 71 59 56 61 76 72 81 83 84 82 78 74 71 70 72
215 202 221 193 163 116 115 112 67 22 79 66 81 101 97 95 76 63 70 77 74 92 105 99 89 77 84 87 91 103 101 97 90 88 74 74 72 82 83 82 81 80 85 83 75 71 78 77 76
219 191 146 163 127 108 107 97 59 46 70 81 99 89 86 68 49 49 57 63 70 75 103 106 95 83 91 103 107 116 106 106 93 93 91 88 92 93 97 84 83 89 86 87 92 90 90 92 83
160 162 129 134 132 139 83 56 66 61 50 64 94 82 66 56 53 44 39 54 64 89 96 106 103 112 91 113 126 135 123 112 101 98 108 103 100 103 102 96 85 80 83 90 96 94 91 97 82
133 114 157 165 159 166 108 66 57 81 65 70 95 105 92 73 54 42 34 40 64 90 83 95 121 122 130 121 146 147 140 143 137 129 127 117 107 111 119 96 87 81 83 88 97 101 98 103 88
90 98 100 90 93 123 114 83 66 37 69 94 85 65 48 40 28 19 29 52 80 98 115 114 124 138 138 154 156 167 170 165 174 162 146 134 139 137 133 110 101 96 92 94 99 94 90 95 92
101 128 80 103 85 66 74 64 71 84 82 80 61 45 36 20 11 1 7 55 104 121 121 134 141 158 170 162 164 187 195 193 201 203 173 163 163 164 160 145 131 114 108 111 108 103 108 111 104

GFSSGP_con_3kmhel_135.txt.gz
Helicity
102 119 160 145 145 110 164 138 102 122 162 203 151 197 149 159 100 22 22 65 69 56 101 108 100 83 67 62 58 49 45 43 43 35 31 26 24 22 19 14 9 5 4 2 6 18 13 9 18
146 152 210 160 142 149 149 117 128 146 129 154 240 189 183 153 92 33 72 28 60 75 97 83 96 103 94 88 76 65 56 54 54 54 53 45 33 26 20 17 15 12 10 12 12 10 14 22 17
186 162 220 150 141 115 158 115 118 122 173 166 155 217 115 97 41 57 61 70 64 77 72 72 93 96 98 93 92 89 88 75 53 44 47 42 38 30 24 26 25 28 21 18 17 18 18 21 17
203 199 223 172 143 159 123 118 157 206 212 162 126 139 100 131 91 99 152 78 72 47 55 75 96 99 100 97 94 90 89 86 84 77 63 52 34 36 37 38 36 34 32 26 24 25 27 32 27
248 219 204 168 171 203 175 150 198 179 152 130 113 81 93 142 148 192 198 131 81 54 49 58 91 92 92 91 86 85 84 80 77 70 70 65 60 53 42 35 36 38 33 31 27 27 31 38 39
279 249 220 226 237 230 181 103 129 136 141 123 130 131 65 65 140 110 113 114 106 88 84 84 91 90 92 85 79 72 73 68 64 58 51 52 53 48 41 45 56 53 47 41 33 32 37 40 40
283 287 205 183 234 263 164 78 101 144 130 117 49 111 70 86 75 79 93 97 102 87 87 95 91 76 62 53 65 57 43 46 44 42 48 52 61 50 37 51 65 62 61 57 46 38 29 26 34
268 281 232 221 223 235 151 171 142 142 160 148 82 44 30 35 82 90 87 86 85 84 90 78 65 64 64 40 52 64 39 53 46 47 56 76 114 132 91 68 77 80 66 67 62 56 52 40 40
281 298 256 253 215 207 147 244 265 188 201 156 123 48 65 122 121 109 90 93 91 85 72 66 63 58 57 45 63 76 74 78 84 73 75 81 98 108 93 88 80 65 70 74 62 52 54 55 56
309 274 285 238 267 197 165 251 241 198 221 180 185 152 123 125 101 93 97 104 88 80 72 65 57 52 52 51 61 73 72 71 83 86 94 96 113 106 100 108 129 127 100 78 81 90 65 81 92
313 314 353 335 322 202 201 242 212 165 142 68 87 74 76 84 78 106 114 96 85 74 70 53 45 48 49 53 56 70 82 78 83 81 88 102 121 135 119 118 127 123 138 121 110 102 109 106 96
296 277 302 389 325 225 197 191 236 164 95 75 85 79 84 73 87 118 113 99 89 83 63 42 46 46 44 43 45 57 78 80 63 63 74 89 104 99 104 97 103 102 114 127 133 116 104 98 82
257 264 282 367 398 289 209 238 183 215 128 132 101 90 74 81 111 116 113 92 81 66 46 42 44 42 38 42 38 52 75 81 72 93 82 102 114 100 94 117 129 128 121 105 85 90 101 89 67
188 218 260 319 359 311 237 262 186 183 123 123 100 81 80 126 150 137 112 89 68 50 42 34 38 37 37 35 32 47 72 82 78 95 81 99 97 98 115 120 133 147 147 114 85 86 89 71 42
141 254 264 321 281 218 219 227 169 111 153 133 106 104 119 121 133 109 94 100 71 44 52 45 47 49 47 36 36 76 75 97 134 82 88 101 93 102 100 102 119 121 127 112 117 112 90 89 69
236 259 241 255 232 200 211 180 131 87 124 106 102 112 128 123 105 110 116 106 82 73 70 66 61 56 48 50 57 90 80 109 149 94 100 104 100 108 113 100 97 108 98 77 70 59 59 60 55
324 289 272 218 195 166 194 184 135 93 103 88 78 93 118 123 120 113 110 97 89 93 94 79 65 62 70 67 79 110 124 111 121 78 76 78 95 113 93 106 97 88 63 55 55 57 57 47 57
331 310 286 197 164 169 168 158 95 68 86 75 65 75 95 97 90 123 121 128 128 122 102 86 84 88 88 75 106 134 114 93 80 65 71 84 97 110 110 90 75 65 50 52 62 48 45 40 67
159 198 251 216 161 161 118 118 75 62 78 68 63 54 80 86 73 117 136 134 140 119 104 99 96 96 88 73 93 102 84 75 79 68 82 92 96 97 96 75 64 56 52 57 64 44 50 54 91
202 191 267 225 148 170 112 88 69 59 75 61 45 51 66 88 109 132 163 171 154 120 109 106 111 93 71 70 74 87 81 77 80 78 88 83 83 85 76 69 56 62 57 58 50 48 38 40 78
202 190 182 144 154 165 117 126 78 72 115 95 70 70 70 75 136 175 187 195 155 132 124 115 100 81 72 63 74 74 93 74 86 77 65 61 74 69 70 66 62 65 54 48 48 61 75 69 43
284 196 149 93 172 162 122 157 123 73 79 97 84 69 62 93 122 159 168 176 153 112 125 123 92 77 66 67 74 82 82 93 73 68 57 52 55 61 65 73 73 65 56 61 52 62 68 69 74
203 151 147 142 183 159 154 123 109 107 99 100 78 63 62 98 111 111 117 138 126 144 133 99 86 76 76 75 73 79 92 91 89 76 62 62 64 69 76 78 76 68 61 62 76 86 92 69 59
166 218 274 210 183 179 133 95 108 101 73 103 97 92 99 107 127 143 122 133 125 118 119 103 96 82 82 73 60 72 87 93 97 76 75 71 69 76 81 81 79 79 78 77 77 75 84 82 76
206 255 295 259 200 116 156 110 76 76 68 52 65 64 56 68 86 94 93 81 88 89 89 95 94 81 82 81 73 77 84 92 85 77 78 83 86 88 76 84 79 76 76 82 84 85 85 84 84
207 165 192 184 153 125 138 83 90 33 29 43 59 64 76 75 67 55 49 54 56 60 74 93 99 83 84 94 90 90 90 98 92 89 89 88 91 90 92 87 80 75 80 83 89 91 85 89 85
164 179 138 116 151 145 110 99 80 52 58 58 69 68 57 50 51 41 46 54 54 55 69 107 107 95 96 110 112 109 108 110 104 91 99 100 97 106 106 98 92 84 82 82 86 87 81 87 87
122 118 162 163 124 148 145 94 82 56 38 61 83 76 77 70 55 42 30 25 36 58 77 100 118 128 133 125 135 136 137 126 116 123 120 123 115 117 130 117 101 92 89 87 92 96 93 104 106
118 126 118 106 111 131 142 122 48 24 30 51 60 68 59 37 31 33 31 24 54 74 92 103 120 128 140 143 143 148 151 149 143 152 144 141 135 138 147 146 135 120 110 102 107 101 100 107 110
82 94 77 95 125 116 118 102 34 32 35 62 73 73 56 48 53 44 40 31 30 23 63 103 111 133 146 150 156 154 157 160 172 175 173 174 171 167 175 174 161 146 134 129 131 123 123 129 127